LiveATC.Net - Listen to live air traffic control over the Internet!
Airport/ARTCC Code
Frequency Search
(e.g., 124.400, 128.75)
Site-wide search
 


Browse Feeds
Top 50 Feeds
HF Oceanic Feeds
Coverage Map
Bad Weather Areas

LiveATC FAQ
Offer LiveATC feed
Contact LiveATC.net
Press Inquiries

LiveATC on iPhone
LiveATC on Android

Windows Phone
Windows 8/10

LiveATC Mobile
(Mobile browser)

ATC Audio Archives
Interesting Recordings

LiveATC Forums

Home Page
About LiveATC.net
Make a Donation
Terms of Use
Privacy Policy

Canadian Air Freqs

AIRMETs/SIGMETs

FAA Airport Status
NAS Status
Arrival Demand


Server Software By:
Icecast.org
Liquidsoap

Select an area of interest:
U.S. Feeds: Class B Airports | Class C Airports | Class D/Other Airports | ARTCC (Centers)
International Feeds: Canada | Europe | Oceania | Asia | South America | North/Central America | Africa
Misc Feeds: HF Feeds
Search by ICAO/IATA airport code:   (e.g., kbos, kjfk, lax, eham, etc.)


Currently Available Live Feeds: 2956
Status Updated: Mon Oct 18 2021 14:29:38 UTC


NOTICE

Unauthorized use prohibited. See LiveATC.net Terms of Service

Europe Airport Feeds

 

EFJY Tower (Archives)
Jyvaskyla, Finland

Feed Status: UP
Listen in your browser - HTML5 player(in browser, HTML5)
Click here to listen with your own player(launches your MP3 player)

EFJY 181350Z AUTO 31010KT 9999 FEW021 03/00 Q1011

EFJY Flight Activity (Flightaware)

Listeners: 0 out of 1280 total

Jyvaskyla Tower: 118.000
Jyvaskyla Tower: 119.700

EFKU Tower/Approach (Archives)
Siilinjarvi, Finland

Feed Status: UP
Listen in your browser - HTML5 player(in browser, HTML5)
Click here to listen with your own player(launches your MP3 player)

EFKU 181350Z AUTO 32011KT 9999 OVC013 03/01 Q1008

EFKU Flight Activity (Flightaware)

Listeners: 2 out of 1280 total

Kuopio Approach: 130.600
Kuopio Tower: 120.150

Dutch Mil Radar (Archives)
Amsterdam, Netherlands

Feed Status: UP
Listen in your browser - HTML5 player(in browser, HTML5)
Click here to listen with your own player(launches your MP3 player)

EHLE 181355Z AUTO 18008KT 9999 NSC 14/09 Q1020 NOSIG

EHLE Flight Activity (Flightaware)

Listeners: 2 out of 1280 total

Approach: 124.530
Dutch Mil Flight Info: 264.325
Dutch Mil Radar: 128.355
Dutch Mil Radar: 132.350

EHAA Radar ARTIP (Archives)
Amsterdam, Netherlands

Feed Status: UP
Listen in your browser - HTML5 player(in browser, HTML5)
Click here to listen with your own player(launches your MP3 player)

EHAM 181355Z 17010KT CAVOK 14/09 Q1019 NOSIG

EHAM Flight Activity (Flightaware)

Listeners: 0 out of 1280 total

EHAA Radar Sector 1 ARTIP: 120.550

EHAA Radar East Inbound (Archives)
Amsterdam, Netherlands

Feed Status: UP
Listen in your browser - HTML5 player(in browser, HTML5)
Click here to listen with your own player(launches your MP3 player)

EHAM 181355Z 17010KT CAVOK 14/09 Q1019 NOSIG

EHAM Flight Activity (Flightaware)

Listeners: 0 out of 1280 total

EHAA Radar Sector 2 East Inbound: 128.575

EHAA Radar East Outbound (Archives)
Amsterdam, Netherlands

Feed Status: UP
Listen in your browser - HTML5 player(in browser, HTML5)
Click here to listen with your own player(launches your MP3 player)

EHAM 181355Z 17010KT CAVOK 14/09 Q1019 NOSIG

EHAM Flight Activity (Flightaware)

Listeners: 1 out of 1280 total

EHAA Radar Sector 2 East Outbound: 124.875

EHAA Radar North (Archives)
Amsterdam, Netherlands

Feed Status: UP
Listen in your browser - HTML5 player(in browser, HTML5)
Click here to listen with your own player(launches your MP3 player)

EHAM 181355Z 17010KT CAVOK 14/09 Q1019 NOSIG

EHAM Flight Activity (Flightaware)

Listeners: 0 out of 1280 total

EHAA Radar Sector 1 North: 134.375

EHAA Radar Northwest (Archives)
Amsterdam, Netherlands

Feed Status: UP
Listen in your browser - HTML5 player(in browser, HTML5)
Click here to listen with your own player(launches your MP3 player)

EHAM 181355Z 17010KT CAVOK 14/09 Q1019 NOSIG

EHAM Flight Activity (Flightaware)

Listeners: 1 out of 1280 total

EHAA Radar Sector 5 Northwest: 123.7000

EHAA Radar RIVER (Archives)
Amsterdam, Netherlands

Feed Status: UP
Listen in your browser - HTML5 player(in browser, HTML5)
Click here to listen with your own player(launches your MP3 player)

EHAM 181355Z 17010KT CAVOK 14/09 Q1019 NOSIG

EHAM Flight Activity (Flightaware)

Listeners: 0 out of 1280 total

EHAA Radar Sector 3 RIVER: 130.950

EHAA Radar South (Archives)
Amsterdam, Netherlands

Feed Status: UP
Listen in your browser - HTML5 player(in browser, HTML5)
Click here to listen with your own player(launches your MP3 player)

EHAM 181355Z 17010KT CAVOK 14/09 Q1019 NOSIG

EHAM Flight Activity (Flightaware)

Listeners: 0 out of 1280 total

EHAA Radar Sector 3 South: 123.850

EHAA Radar South (Backup) (Archives)
Amsterdam, Netherlands

Feed Status: UP
Listen in your browser - HTML5 player(in browser, HTML5)
Click here to listen with your own player(launches your MP3 player)

EHAM 181355Z 17010KT CAVOK 14/09 Q1019 NOSIG

EHAM Flight Activity (Flightaware)

Listeners: 0 out of 1280 total

EHAA Radar Sector 3 South Backup : 127.775

EHAA Radar Southwest (Archives)
Amsterdam, Netherlands

Feed Status: UP
Listen in your browser - HTML5 player(in browser, HTML5)
Click here to listen with your own player(launches your MP3 player)

EHAM 181355Z 17010KT CAVOK 14/09 Q1019 NOSIG

EHAM Flight Activity (Flightaware)

Listeners: 0 out of 1280 total

EHAA Radar Sector 4 Southwest: 125.750

EHAA Radar SUGOL (Archives)
Amsterdam, Netherlands

Feed Status: UP
Listen in your browser - HTML5 player(in browser, HTML5)
Click here to listen with your own player(launches your MP3 player)

EHAM 181355Z 17010KT CAVOK 14/09 Q1019 NOSIG

EHAM Flight Activity (Flightaware)

Listeners: 0 out of 1280 total

EHAA Radar Sector 5 SUGOL: 118.800

EHAM Airside Ops Mgr (AOM) (Archives)
Amsterdam, Netherlands

Feed Status: UP
Listen in your browser - HTML5 player(in browser, HTML5)
Click here to listen with your own player(launches your MP3 player)

EHAM 181355Z 17010KT CAVOK 14/09 Q1019 NOSIG

EHAM Flight Activity (Flightaware)

Listeners: 0 out of 1280 total

Schiphol Airside Operations Manager: 130.475

EHAM App/Dep Backup (Archives)
Amsterdam, Netherlands

Feed Status: UP
Listen in your browser - HTML5 player(in browser, HTML5)
Click here to listen with your own player(launches your MP3 player)

EHAM 181355Z 17010KT CAVOK 14/09 Q1019 NOSIG

EHAM Flight Activity (Flightaware)

Listeners: 0 out of 1280 total

Schiphol App/Dep Backup: 118.075

EHAM App/Dep TMA East (Archives)
Amsterdam, Netherlands

Feed Status: UP
Listen in your browser - HTML5 player(in browser, HTML5)
Click here to listen with your own player(launches your MP3 player)

EHAM 181355Z 17010KT CAVOK 14/09 Q1019 NOSIG

EHAM Flight Activity (Flightaware)

Listeners: 3 out of 1280 total

Amsterdam Approach/Departure TMA East: 119.055

EHAM App/Dep TMA West (Archives)
Amsterdam, Netherlands

Feed Status: UP
Listen in your browser - HTML5 player(in browser, HTML5)
Click here to listen with your own player(launches your MP3 player)

EHAM 181355Z 17010KT CAVOK 14/09 Q1019 NOSIG

EHAM Flight Activity (Flightaware)

Listeners: 0 out of 1280 total

Amsterdam Approach/Departure TMA West: 121.200

EHAM Apron (North) (Archives)
Amsterdam, Netherlands

Feed Status: UP
Listen in your browser - HTML5 player(in browser, HTML5)
Click here to listen with your own player(launches your MP3 player)

EHAM 181355Z 17010KT CAVOK 14/09 Q1019 NOSIG

EHAM Flight Activity (Flightaware)

Listeners: 0 out of 1280 total

Schiphol Apron (North): 121.880

EHAM Apron (South) (Archives)
Amsterdam, Netherlands

Feed Status: UP
Listen in your browser - HTML5 player(in browser, HTML5)
Click here to listen with your own player(launches your MP3 player)

EHAM 181355Z 17010KT CAVOK 14/09 Q1019 NOSIG

EHAM Flight Activity (Flightaware)

Listeners: 0 out of 1280 total

Schiphol Apron (South): 121.780

EHAM Arrival (Primary) (Archives)
Amsterdam, Netherlands

Feed Status: UP
Listen in your browser - HTML5 player(in browser, HTML5)
Click here to listen with your own player(launches your MP3 player)

EHAM 181355Z 17010KT CAVOK 14/09 Q1019 NOSIG

EHAM Flight Activity (Flightaware)

Listeners: 1 out of 1280 total

Amsterdam Arrival : 118.400

EHAM Arrival (Secondary) (Archives)
Amsterdam, Netherlands

Feed Status: UP
Listen in your browser - HTML5 player(in browser, HTML5)
Click here to listen with your own player(launches your MP3 player)

EHAM 181355Z 17010KT CAVOK 14/09 Q1019 NOSIG

EHAM Flight Activity (Flightaware)

Listeners: 0 out of 1280 total

Amsterdam Arrival (Secondary): 131.150

EHAM Arrival (Secondary/Backup) (Archives)
Amsterdam, Netherlands

Feed Status: UP
Listen in your browser - HTML5 player(in browser, HTML5)
Click here to listen with your own player(launches your MP3 player)

EHAM 181355Z 17010KT CAVOK 14/09 Q1019 NOSIG

EHAM Flight Activity (Flightaware)

Listeners: 0 out of 1280 total

Amsterdam Arrival (Secondary Backup): 131.275

EHAM Arrival Backup/Discrete (Archives)
Amsterdam, Netherlands

Feed Status: UP
Listen in your browser - HTML5 player(in browser, HTML5)
Click here to listen with your own player(launches your MP3 player)

EHAM 181355Z 17010KT CAVOK 14/09 Q1019 NOSIG

EHAM Flight Activity (Flightaware)

Listeners: 0 out of 1280 total

Schiphol Arrival Backup: 126.675

EHAM Clearance Delivery (Archives)
Amsterdam, Netherlands

Feed Status: UP
Listen in your browser - HTML5 player(in browser, HTML5)
Click here to listen with your own player(launches your MP3 player)

EHAM 181355Z 17010KT CAVOK 14/09 Q1019 NOSIG

EHAM Flight Activity (Flightaware)

Listeners: 0 out of 1280 total

Schiphol Clearance Delivery: 121.980

EHAM Ground (Backup) (Archives)
Amsterdam, Netherlands

Feed Status: UP
Listen in your browser - HTML5 player(in browser, HTML5)
Click here to listen with your own player(launches your MP3 player)

EHAM 181355Z 17010KT CAVOK 14/09 Q1019 NOSIG

EHAM Flight Activity (Flightaware)

Listeners: 0 out of 1280 total

Schiphol Ground (Backup): 122.425

EHAM Ground (North) (Archives)
Amsterdam, Netherlands

Feed Status: UP
Listen in your browser - HTML5 player(in browser, HTML5)
Click here to listen with your own player(launches your MP3 player)

EHAM 181355Z 17010KT CAVOK 14/09 Q1019 NOSIG

EHAM Flight Activity (Flightaware)

Listeners: 0 out of 1280 total

Schiphol Ground (North): 121.805

EHAM Ground (South) (Archives)
Amsterdam, Netherlands

Feed Status: UP
Listen in your browser - HTML5 player(in browser, HTML5)
Click here to listen with your own player(launches your MP3 player)

EHAM 181355Z 17010KT CAVOK 14/09 Q1019 NOSIG

EHAM Flight Activity (Flightaware)

Listeners: 1 out of 1280 total

Schiphol Ground (South): 121.705

EHAM Ground (West) (Archives)
Amsterdam, Netherlands

Feed Status: UP
Listen in your browser - HTML5 player(in browser, HTML5)
Click here to listen with your own player(launches your MP3 player)

EHAM 181355Z 17010KT CAVOK 14/09 Q1019 NOSIG

EHAM Flight Activity (Flightaware)

Listeners: 0 out of 1280 total

Schiphol Ground (West): 121.560

EHAM Info North Sea (North) (Archives)
Amsterdam, Netherlands

Feed Status: UP
Listen in your browser - HTML5 player(in browser, HTML5)
Click here to listen with your own player(launches your MP3 player)

EHAM 181355Z 17010KT CAVOK 14/09 Q1019 NOSIG

EHAM Flight Activity (Flightaware)

Listeners: 0 out of 1280 total

Amsterdam Info North Sea (North): 119.175

EHAM Info North Sea (Over Land) (Archives)
Amsterdam, Netherlands

Feed Status: UP
Listen in your browser - HTML5 player(in browser, HTML5)
Click here to listen with your own player(launches your MP3 player)

EHAM 181355Z 17010KT CAVOK 14/09 Q1019 NOSIG

EHAM Flight Activity (Flightaware)

Listeners: 1 out of 1280 total

Amsterdam Info North Sea (Over Land): 124.300

EHAM Info North Sea (South) (Archives)
Amsterdam, Netherlands

Feed Status: UP
Listen in your browser - HTML5 player(in browser, HTML5)
Click here to listen with your own player(launches your MP3 player)

EHAM 181355Z 17010KT CAVOK 14/09 Q1019 NOSIG

EHAM Flight Activity (Flightaware)

Listeners: 0 out of 1280 total

Amsterdam Info North Sea (South): 136.650

EHAM Schiphol Outbound Planner (Archives)
Amsterdam, Netherlands

Feed Status: UP
Listen in your browser - HTML5 player(in browser, HTML5)
Click here to listen with your own player(launches your MP3 player)

EHAM 181355Z 17010KT CAVOK 14/09 Q1019 NOSIG

EHAM Flight Activity (Flightaware)

Listeners: 0 out of 1280 total

Schiphol Outbound Planner: 121.655

EHAM Tow Traffic (Archives)
Amsterdam, Netherlands

Feed Status: UP
Listen in your browser - HTML5 player(in browser, HTML5)
Click here to listen with your own player(launches your MP3 player)

EHAM 181355Z 17010KT CAVOK 14/09 Q1019 NOSIG

EHAM Flight Activity (Flightaware)

Listeners: 0 out of 1280 total

Schiphol Tow Traffic: 134.875

EHAM Tower (06/24) (Archives)
Amsterdam, Netherlands

Feed Status: UP
Listen in your browser - HTML5 player(in browser, HTML5)
Click here to listen with your own player(launches your MP3 player)

EHAM 181355Z 17010KT CAVOK 14/09 Q1019 NOSIG

EHAM Flight Activity (Flightaware)

Listeners: 1 out of 1280 total

Schiphol Tower Main 06/24: 135.110

EHAM Tower (18C/36C-27/09) (Archives)
Amsterdam, Netherlands

Feed Status: UP
Listen in your browser - HTML5 player(in browser, HTML5)
Click here to listen with your own player(launches your MP3 player)

EHAM 181355Z 17010KT CAVOK 14/09 Q1019 NOSIG

EHAM Flight Activity (Flightaware)

Listeners: 3 out of 1280 total

Schiphol Tower Main 18C/36C - 27/09: 118.100

EHAM Tower (18L/36R-22/04) (Archives)
Amsterdam, Netherlands

Feed Status: UP
Listen in your browser - HTML5 player(in browser, HTML5)
Click here to listen with your own player(launches your MP3 player)

EHAM 181355Z 17010KT CAVOK 14/09 Q1019 NOSIG

EHAM Flight Activity (Flightaware)

Listeners: 2 out of 1280 total

Schiphol Tower Main 18L/36R - 22/04: 119.225

EHAM Tower Backup (Archives)
Amsterdam, Netherlands

Feed Status: UP
Listen in your browser - HTML5 player(in browser, HTML5)
Click here to listen with your own player(launches your MP3 player)

EHAM 181355Z 17010KT CAVOK 14/09 Q1019 NOSIG

EHAM Flight Activity (Flightaware)

Listeners: 0 out of 1280 total

Schiphol Tower Backup: 119.905

EHAM Tower West (18R/36L) (Archives)
Amsterdam, Netherlands

Feed Status: UP
Listen in your browser - HTML5 player(in browser, HTML5)
Click here to listen with your own player(launches your MP3 player)

EHAM 181355Z 17010KT CAVOK 14/09 Q1019 NOSIG

EHAM Flight Activity (Flightaware)

Listeners: 1 out of 1280 total

Schiphol Tower West 18R/36L: 118.280

EHBK ATIS (Archives)
Beek, Netherlands

Feed Status: UP
Listen in your browser - HTML5 player(in browser, HTML5)
Click here to listen with your own player(launches your MP3 player)

EHBK 181355Z AUTO 19007KT 160V230 9999 NSC 17/09 Q1020 NOSIG

EHBK Flight Activity (Flightaware)

Listeners: 0 out of 1280 total

Beek ATIS: 124.575

EHBK Gnd/Twr/App (Archives)
Beek, Netherlands

Feed Status: UP
Listen in your browser - HTML5 player(in browser, HTML5)
Click here to listen with your own player(launches your MP3 player)

EHBK 181355Z AUTO 19007KT 160V230 9999 NSC 17/09 Q1020 NOSIG

EHBK Flight Activity (Flightaware)

Listeners: 3 out of 1280 total

Beek Approach: 120.200
Beek Approach: 123.975
Beek Ground: 121.825
Beek Tower: 119.475
Beek Tower: 119.700

MUAC/Eurocontrol Delta High (Archives)
Beek, Netherlands

Feed Status: UP
Listen in your browser - HTML5 player(in browser, HTML5)
Click here to listen with your own player(launches your MP3 player)

EHBK 181355Z AUTO 19007KT 160V230 9999 NSC 17/09 Q1020 NOSIG

EHBK Flight Activity (Flightaware)

Listeners: 0 out of 1280 total

MUAC Delta High Sector: 132.085

MUAC/Eurocontrol Koksy (Archives)
Beek, Netherlands

Feed Status: UP
Listen in your browser - HTML5 player(in browser, HTML5)
Click here to listen with your own player(launches your MP3 player)

EHBK 181355Z AUTO 19007KT 160V230 9999 NSC 17/09 Q1020 NOSIG

EHBK Flight Activity (Flightaware)

Listeners: 0 out of 1280 total

MUAC Koksy Sector: 132.205

MUAC/Eurocontrol Koksy High (Archives)
Beek, Netherlands

Feed Status: UP
Listen in your browser - HTML5 player(in browser, HTML5)
Click here to listen with your own player(launches your MP3 player)

EHBK 181355Z AUTO 19007KT 160V230 9999 NSC 17/09 Q1020 NOSIG

EHBK Flight Activity (Flightaware)

Listeners: 1 out of 1280 total

MUAC Koksy High Sector: 132.755

MUAC/Eurocontrol Lux High (Archives)
Beek, Netherlands

Feed Status: UP
Listen in your browser - HTML5 player(in browser, HTML5)
Click here to listen with your own player(launches your MP3 player)

EHBK 181355Z AUTO 19007KT 160V230 9999 NSC 17/09 Q1020 NOSIG

EHBK Flight Activity (Flightaware)

Listeners: 2 out of 1280 total

MUAC Lux High Sector: 132.315

MUAC/Eurocontrol Lux Low (Archives)
Beek, Netherlands

Feed Status: UP
Listen in your browser - HTML5 player(in browser, HTML5)
Click here to listen with your own player(launches your MP3 player)

EHBK 181355Z AUTO 19007KT 160V230 9999 NSC 17/09 Q1020 NOSIG

EHBK Flight Activity (Flightaware)

Listeners: 0 out of 1280 total

MUAC Lux Low Sector: 133.355

MUAC/Eurocontrol Olno Low (Archives)
Beek, Netherlands

Feed Status: UP
Listen in your browser - HTML5 player(in browser, HTML5)
Click here to listen with your own player(launches your MP3 player)

EHBK 181355Z AUTO 19007KT 160V230 9999 NSC 17/09 Q1020 NOSIG

EHBK Flight Activity (Flightaware)

Listeners: 0 out of 1280 total

MUAC Olno Low Sector: 132.855

MUAC/Eurocontrol Ruhr (Archives)
Beek, Netherlands

Feed Status: UP
Listen in your browser - HTML5 player(in browser, HTML5)
Click here to listen with your own player(launches your MP3 player)

EHBK 181355Z AUTO 19007KT 160V230 9999 NSC 17/09 Q1020 NOSIG

EHBK Flight Activity (Flightaware)

Listeners: 3 out of 1280 total

MUAC Ruhr Sector: 132.515

EHEH Approach #1 (Archives)
Eindhoven, Netherlands

Feed Status: UP
Listen in your browser - HTML5 player(in browser, HTML5)
Click here to listen with your own player(launches your MP3 player)

EHEH 181355Z AUTO 17007KT 130V200 9999 OVC210 16/09 Q1020 BLU NOSIG

EHEH Flight Activity (Flightaware)

Listeners: 1 out of 1280 total

DutchMil Info: 132.355
DutchMil Info UHF: 341.600
DutchMil RAPCON South: 123.180
Eindhoven Arrival: 125.530
Eindhoven Arrival (UHF): 265.975
Emergency/Guard: 121.500
Rapcon South UHF: 388.525
Volkel Arrival UHF: 291.200

EHEH Tower #1 (Archives)
Eindhoven, Netherlands

Feed Status: UP
Listen in your browser - HTML5 player(in browser, HTML5)
Click here to listen with your own player(launches your MP3 player)

EHEH 181355Z AUTO 17007KT 130V200 9999 OVC210 16/09 Q1020 BLU NOSIG

EHEH Flight Activity (Flightaware)

Listeners: 3 out of 1280 total

Eindhoven Tower: 131.005
Eindhoven Tower (UHF): 241.550
Generic Tower: 122.100
Generic Tower (UHF): 257.800
Volkel Tower: 136.080
Volkel Tower (UHF): 291.100

EHGG Approach (Archives)
Groningen, Netherlands

Feed Status: UP
Listen in your browser - HTML5 player(in browser, HTML5)
Click here to listen with your own player(launches your MP3 player)

EHGG 181355Z AUTO 19007KT 160V220 9999 NSC 15/09 Q1020 NOSIG

EHGG Flight Activity (Flightaware)

Listeners: 1 out of 1280 total

Eelde Approach: 120.305

EHGG ATIS (Archives)
Groningen, Netherlands

Feed Status: UP
Listen in your browser - HTML5 player(in browser, HTML5)
Click here to listen with your own player(launches your MP3 player)

EHGG 181355Z AUTO 19007KT 160V220 9999 NSC 15/09 Q1020 NOSIG

EHGG Flight Activity (Flightaware)

Listeners: 0 out of 1280 total

Groningen ATIS: 133.555

EHGG Ground (Archives)
Groningen, Netherlands

Feed Status: UP
Listen in your browser - HTML5 player(in browser, HTML5)
Click here to listen with your own player(launches your MP3 player)

EHGG 181355Z AUTO 19007KT 160V220 9999 NSC 15/09 Q1020 NOSIG

EHGG Flight Activity (Flightaware)

Listeners: 0 out of 1280 total

Eelde Clearance Delivery/Ground: 121.705

EHGG Guard/Emergency (Archives)
Groningen, Netherlands

Feed Status: UP
Listen in your browser - HTML5 player(in browser, HTML5)
Click here to listen with your own player(launches your MP3 player)

EHGG 181355Z AUTO 19007KT 160V220 9999 NSC 15/09 Q1020 NOSIG

EHGG Flight Activity (Flightaware)

Listeners: 1 out of 1280 total

Emergency/Guard: 121.500

EHGG Tower (Archives)
Groningen, Netherlands

Feed Status: UP
Listen in your browser - HTML5 player(in browser, HTML5)
Click here to listen with your own player(launches your MP3 player)

EHGG 181355Z AUTO 19007KT 160V220 9999 NSC 15/09 Q1020 NOSIG

EHGG Flight Activity (Flightaware)

Listeners: 3 out of 1280 total

Eelde Tower: 118.705

EHGG Twr/App (Secondary) (Archives)
Groningen, Netherlands

Feed Status: UP
Listen in your browser - HTML5 player(in browser, HTML5)
Click here to listen with your own player(launches your MP3 player)

EHGG 181355Z AUTO 19007KT 160V220 9999 NSC 15/09 Q1020 NOSIG

EHGG Flight Activity (Flightaware)

Listeners: 0 out of 1280 total

Eelde Tower/App (Backup): 119.705

MUAC/Eurocontrol (EHGG Area) (Archives)
Groningen, Netherlands

Feed Status: UP
Listen in your browser - HTML5 player(in browser, HTML5)
Click here to listen with your own player(launches your MP3 player)

EHGG 181355Z AUTO 19007KT 160V220 9999 NSC 15/09 Q1020 NOSIG

EHGG Flight Activity (Flightaware)

Listeners: 1 out of 1280 total

MUAC Holstein High Sector: 132.775
MUAC Holstein Sector: 120.9333
MUAC Javer High Sector: 134.700
MUAC Jever Sector: 136.4666

EHGR Ground (Archives)
Breda, Netherlands

Feed Status: UP
Listen in your browser - HTML5 player(in browser, HTML5)
Click here to listen with your own player(launches your MP3 player)

EHGR 181355Z AUTO 17007KT 130V200 9999 OVC200 16/10 Q1020 BLU NOSIG

EHGR Flight Activity (Flightaware)

Listeners: 0 out of 1280 total

Gilze Rijen Ground: 121.680

EHGR Ground/Tower (Archives)
Breda, Netherlands

Feed Status: UP
Listen in your browser - HTML5 player(in browser, HTML5)
Click here to listen with your own player(launches your MP3 player)

EHGR 181355Z AUTO 17007KT 130V200 9999 OVC200 16/10 Q1020 BLU NOSIG

EHGR Flight Activity (Flightaware)

Listeners: 0 out of 1280 total

Gilze Rijen Ground: 121.680
Gilze Rijen Tower: 125.330

EHGR Tower (Archives)
Breda, Netherlands

Feed Status: UP
Listen in your browser - HTML5 player(in browser, HTML5)
Click here to listen with your own player(launches your MP3 player)

EHGR 181355Z AUTO 17007KT 130V200 9999 OVC200 16/10 Q1020 BLU NOSIG

EHGR Flight Activity (Flightaware)

Listeners: 0 out of 1280 total

Gilze Rijen Tower: 125.330

EHHV CTAF (Archives)
Hilversum, Netherlands

Feed Status: UP
Listen in your browser - HTML5 player(in browser, HTML5)
Click here to listen with your own player(launches your MP3 player)

EHHV Flight Activity (Flightaware)

Listeners: 3 out of 1280 total

Hilversum Radio: 131.030

EHKD ATIS (Archives)
Den Helder, Netherlands

Feed Status: UP
Listen in your browser - HTML5 player(in browser, HTML5)
Click here to listen with your own player(launches your MP3 player)

EHKD 181355Z AUTO 18009KT 9999 OVC170 14/09 Q1018 BLU NOSIG

EHKD Flight Activity (Flightaware)

Listeners: 0 out of 1280 total

De Kooy ATIS: 133.015

EHKD Ground/Tower (Archives)
Den Helder, Netherlands

Feed Status: UP
Listen in your browser - HTML5 player(in browser, HTML5)
Click here to listen with your own player(launches your MP3 player)

EHKD 181355Z AUTO 18009KT 9999 OVC170 14/09 Q1018 BLU NOSIG

EHKD Flight Activity (Flightaware)

Listeners: 0 out of 1280 total

De Kooy Ground: 121.730
De Kooy Tower: 120.130

Approach/Dutch Mil Radar (Archives)
Lelystad, Netherlands

Feed Status: UP
Listen in your browser - HTML5 player(in browser, HTML5)
Click here to listen with your own player(launches your MP3 player)

EHLE 181355Z AUTO 18008KT 9999 NSC 14/09 Q1020 NOSIG

EHLE Flight Activity (Flightaware)

Listeners: 2 out of 1280 total

Approach: 124.530
Dutch Mil Flight Info: 264.325
Dutch Mil Radar: 128.355
Dutch Mil Radar: 132.350

EHLE App/Dep (Archives)
Lelystad, Netherlands

Feed Status: UP
Listen in your browser - HTML5 player(in browser, HTML5)
Click here to listen with your own player(launches your MP3 player)

EHLE 181355Z AUTO 18008KT 9999 NSC 14/09 Q1020 NOSIG

EHLE Flight Activity (Flightaware)

Listeners: 0 out of 1280 total

Lelystad Approach: 134.530

EHLE Clearance Delivery (Archives)
Lelystad, Netherlands

Feed Status: UP
Listen in your browser - HTML5 player(in browser, HTML5)
Click here to listen with your own player(launches your MP3 player)

EHLE 181355Z AUTO 18008KT 9999 NSC 14/09 Q1020 NOSIG

EHLE Flight Activity (Flightaware)

Listeners: 0 out of 1280 total

Lelystad Clearance Delivery: 123.680

EHLE FIC (Archives)
Lelystad, Netherlands

Feed Status: UP
Listen in your browser - HTML5 player(in browser, HTML5)
Click here to listen with your own player(launches your MP3 player)

EHLE 181355Z AUTO 18008KT 9999 NSC 14/09 Q1020 NOSIG

EHLE Flight Activity (Flightaware)

Listeners: 0 out of 1280 total

FIC Amsterdam Information: 124.300

EHLE Tower (Archives)
Lelystad, Netherlands

Feed Status: UP
Listen in your browser - HTML5 player(in browser, HTML5)
Click here to listen with your own player(launches your MP3 player)

EHLE 181355Z AUTO 18008KT 9999 NSC 14/09 Q1020 NOSIG

EHLE Flight Activity (Flightaware)

Listeners: 0 out of 1280 total

Lelystad Tower: 135.180
Lelystad Tower: 123.830

EHMM CTAF (Archives)
Middenmeer, Netherlands

Feed Status: UP
Listen in your browser - HTML5 player(in browser, HTML5)
Click here to listen with your own player(launches your MP3 player)

EHMM Flight Activity (Flightaware)

Listeners: 0 out of 1280 total

Middenmeer CTAF: 123.425

EHMZ (Archives)
Middelburg, Netherlands

Feed Status: UP
Listen in your browser - HTML5 player(in browser, HTML5)
Click here to listen with your own player(launches your MP3 player)

EHMZ Flight Activity (Flightaware)

Listeners: 1 out of 1280 total

Midden-Zeeland Radio: 119.255

EHRD Approach (Archives)
Rotterdam, Netherlands

Feed Status: UP
Listen in your browser - HTML5 player(in browser, HTML5)
Click here to listen with your own player(launches your MP3 player)

EHRD 181355Z AUTO 17009KT 140V200 9999 NSC 14/10 Q1019 NOSIG

EHRD Flight Activity (Flightaware)

Listeners: 0 out of 1280 total

Rotterdam Approach: 122.990
Rotterdam Approach: 124.535
Rotterdam Approach: 281.050

EHRD Clearance Delivery (Archives)
Rotterdam, Netherlands

Feed Status: UP
Listen in your browser - HTML5 player(in browser, HTML5)
Click here to listen with your own player(launches your MP3 player)

EHRD 181355Z AUTO 17009KT 140V200 9999 NSC 14/10 Q1019 NOSIG

EHRD Flight Activity (Flightaware)

Listeners: 0 out of 1280 total

Rotterdam Del/Gnd: 122.180

EHRD Del/Twr (Archives)
Rotterdam, Netherlands

Feed Status: UP
Listen in your browser - HTML5 player(in browser, HTML5)
Click here to listen with your own player(launches your MP3 player)

EHRD 181355Z AUTO 17009KT 140V200 9999 NSC 14/10 Q1019 NOSIG

EHRD Flight Activity (Flightaware)

Listeners: 1 out of 1280 total

Rotterdam Del/Gnd: 122.180
Rotterdam Tower: 118.205

EHRD Gnd/Twr/App (Archives)
Rotterdam, Netherlands

Feed Status: UP
Listen in your browser - HTML5 player(in browser, HTML5)
Click here to listen with your own player(launches your MP3 player)

EHRD 181355Z AUTO 17009KT 140V200 9999 NSC 14/10 Q1019 NOSIG

EHRD Flight Activity (Flightaware)

Listeners: 3 out of 1280 total

Adam Info: 124.300
Regional Guard: 119.705
Rotterdam Approach: 127.025
Rotterdam Del/Gnd: 122.180
Rotterdam Tower: 118.205
SAR: 123.100
SAR: 282.800

EHRD Tower (Archives)
Rotterdam, Netherlands

Feed Status: UP
Listen in your browser - HTML5 player(in browser, HTML5)
Click here to listen with your own player(launches your MP3 player)

EHRD 181355Z AUTO 17009KT 140V200 9999 NSC 14/10 Q1019 NOSIG

EHRD Flight Activity (Flightaware)

Listeners: 1 out of 1280 total

Rotterdam Tower: 118.205
Rotterdam Tower: 362.300

EHRD Twr/App
Rotterdam, Netherlands

Feed Status: DOWN
Offline since: 2020-03-14 14:15:39 UTC

EHRD 181355Z AUTO 17009KT 140V200 9999 NSC 14/10 Q1019 NOSIG

Rotterdam Approach: 127.025
Rotterdam Tower: 118.205

EHSE Radio/FIC
Bosschenhoofd, Netherlands

Feed Status: DOWN
Offline since: 2021-10-15 22:50:04 UTC

Dutch MIL Info FIC: 132.350
Seppe Radio (Tower/Ground): 120.655

EHTX Gnd/Twr
Texel, Netherlands

Feed Status: DOWN
Offline since: 2021-06-08 14:20:38 UTC

Texel Radio (Ground/Tower): 119.300

EHVL CTAF/Range Control
Vlieland, Netherlands

Feed Status: DOWN
Offline since: 2021-06-08 14:20:38 UTC

EHVL 181355Z AUTO 18011KT 9999 OVC160 13/09 Q1018 BLU

Cornfield VHF (CTAF): 122.100
Range Controller (Primary): 291.650
Range Controller (Secondary): 370.300
Range Controller VHF: 138.075

EICK Approach/Departure (Archives)
Cork, Ireland

Feed Status: UP
Listen in your browser - HTML5 player(in browser, HTML5)
Click here to listen with your own player(launches your MP3 player)

EICK 181330Z 22010KT 9999 BKN008 17/16 Q1008 NOSIG

EICK Flight Activity (Flightaware)

Listeners: 0 out of 1280 total

Cork Approach: 119.900

EICK Gnd/Twr/App/Dep (Archives)
Cork, Ireland

Feed Status: UP
Listen in your browser - HTML5 player(in browser, HTML5)
Click here to listen with your own player(launches your MP3 player)

EICK 181330Z 22010KT 9999 BKN008 17/16 Q1008 NOSIG

EICK Flight Activity (Flightaware)

Listeners: 1 out of 1280 total

Cork Approach: 119.900
Cork Ground: 121.850
Cork Tower: 119.300

EICK Ground/Tower (Archives)
Cork, Ireland

Feed Status: UP
Listen in your browser - HTML5 player(in browser, HTML5)
Click here to listen with your own player(launches your MP3 player)

EICK 181330Z 22010KT 9999 BKN008 17/16 Q1008 NOSIG

EICK Flight Activity (Flightaware)

Listeners: 0 out of 1280 total

Cork Ground: 121.850
Cork Tower: 119.300

EIDW Approach (Archives)
Dublin, Ireland

Feed Status: UP
Listen in your browser - HTML5 player(in browser, HTML5)
Click here to listen with your own player(launches your MP3 player)

EIDW 181330Z 22012KT 180V260 9999 FEW018 BKN021 18/15 Q1006 NOSIG

EIDW Flight Activity (Flightaware)

Listeners: 2 out of 1280 total

Dublin Approach: 121.100

EIDW Approach (Final) (Archives)
Dublin, Ireland

Feed Status: UP
Listen in your browser - HTML5 player(in browser, HTML5)
Click here to listen with your own player(launches your MP3 player)

EIDW 181330Z 22012KT 180V260 9999 FEW018 BKN021 18/15 Q1006 NOSIG

EIDW Flight Activity (Flightaware)

Listeners: 0 out of 1280 total

Dublin Approach (Final): 119.925

EIDW Clearance Delivery (Archives)
Dublin, Ireland

Feed Status: UP
Listen in your browser - HTML5 player(in browser, HTML5)
Click here to listen with your own player(launches your MP3 player)

EIDW 181330Z 22012KT 180V260 9999 FEW018 BKN021 18/15 Q1006 NOSIG

EIDW Flight Activity (Flightaware)

Listeners: 2 out of 1280 total

Dublin Clearance Delivery: 121.875

EIDW Del/Gnd/Twr/App/Center (Archives)
Dublin, Ireland

Feed Status: UP
Listen in your browser - HTML5 player(in browser, HTML5)
Click here to listen with your own player(launches your MP3 player)

EIDW 181330Z 22012KT 180V260 9999 FEW018 BKN021 18/15 Q1006 NOSIG

EIDW Flight Activity (Flightaware)

Listeners: 9 out of 1280 total

Dublin Approach: 121.100
Dublin Approach (backup): 119.550
Dublin Centre North: 129.175
Dublin Centre South: 126.250
Dublin Clearance Delivery: 121.875
Dublin FIS: 118.500
Dublin Ground: 121.800
Dublin Tower: 118.600

EIDW Ground (Archives)
Dublin, Ireland

Feed Status: UP
Listen in your browser - HTML5 player(in browser, HTML5)
Click here to listen with your own player(launches your MP3 player)

EIDW 181330Z 22012KT 180V260 9999 FEW018 BKN021 18/15 Q1006 NOSIG

EIDW Flight Activity (Flightaware)

Listeners: 1 out of 1280 total

Dublin Ground: 121.800

EIDW Ground (North) (Archives)
Dublin, Ireland

Feed Status: UP
Listen in your browser - HTML5 player(in browser, HTML5)
Click here to listen with your own player(launches your MP3 player)

EIDW 181330Z 22012KT 180V260 9999 FEW018 BKN021 18/15 Q1006 NOSIG

EIDW Flight Activity (Flightaware)

Listeners: 1 out of 1280 total

Dublin Ground (North): 118.750

EIDW Tower (Archives)
Dublin, Ireland

Feed Status: UP
Listen in your browser - HTML5 player(in browser, HTML5)
Click here to listen with your own player(launches your MP3 player)

EIDW 181330Z 22012KT 180V260 9999 FEW018 BKN021 18/15 Q1006 NOSIG

EIDW Flight Activity (Flightaware)

Listeners: 4 out of 1280 total

Dublin Tower: 118.600

EIKN Gnd/Twr/App (Archives)
Charlestown, Ireland

Feed Status: UP
Listen in your browser - HTML5 player(in browser, HTML5)
Click here to listen with your own player(launches your MP3 player)

EIKN 181330Z 22012KT 9999 BKN005 BKN012 15/14 Q1004 BECMG SCT010 BKN025

EIKN Flight Activity (Flightaware)

Listeners: 1 out of 1280 total

Connaught Ground: 121.900
Connaught Tower: 130.700
Shannon Low Level: 119.075

EINN Shannon Control High (East) (Archives)
Shannon, Ireland

Feed Status: UP
Listen in your browser - HTML5 player(in browser, HTML5)
Click here to listen with your own player(launches your MP3 player)

EINN 181330Z 24009KT 9999 FEW019 BKN200 18/15 Q1006 NOSIG

EINN Flight Activity (Flightaware)

Listeners: 1 out of 1280 total

Shannon Clearance (Oceanic only): 121.700
Shannon Control: 134.260
Shannon Control: 134.630
Shannon Control: 135.230
Shannon Control: 135.600
Shannon Control: 136.255
Shannon Control (BABAN/DEVOL Sector): 132.150

EINN Shannon Control High (West/Coastal) (Archives)
Shannon, Ireland

Feed Status: UP
Listen in your browser - HTML5 player(in browser, HTML5)
Click here to listen with your own player(launches your MP3 player)

EINN 181330Z 24009KT 9999 FEW019 BKN200 18/15 Q1006 NOSIG

EINN Flight Activity (Flightaware)

Listeners: 5 out of 1280 total

Shannon Control: 131.150
Shannon Control: 125.880
Shannon Control: 120.040
Shannon Control: 122.980
Shannon Control: 127.130
Shannon Control: 129.665
Shannon Control: 133.360

EINN Shannon Control Low (Archives)
Shannon, Ireland

Feed Status: UP
Listen in your browser - HTML5 player(in browser, HTML5)
Click here to listen with your own player(launches your MP3 player)

EINN 181330Z 24009KT 9999 FEW019 BKN200 18/15 Q1006 NOSIG

EINN Flight Activity (Flightaware)

Listeners: 1 out of 1280 total

Shannon Control (Low): 119.080
Shannon Control Low: 124.700

EINN Twr/App #1 (Archives)
Shannon, Ireland

Feed Status: UP
Listen in your browser - HTML5 player(in browser, HTML5)
Click here to listen with your own player(launches your MP3 player)

EINN 181330Z 24009KT 9999 FEW019 BKN200 18/15 Q1006 NOSIG

EINN Flight Activity (Flightaware)

Listeners: 4 out of 1280 total

Aer Lingus Ops: 131.500
Service Air Ops: 131.450
Shannon Approach Radar: 121.400
Shannon Control: Misc
Shannon Ground: 121.800
Shannon Tower: 118.700
Sig Ops (Pre-Clearance): 131.590

ENAT Twr/App/Control (Archives)
Alta, Norway

Feed Status: UP
Listen in your browser - HTML5 player(in browser, HTML5)
Click here to listen with your own player(launches your MP3 player)

ENAT 181350Z 34013KT 9999 VCSH FEW014 BKN037 00/M03 Q1017 RMK WIND 700FT 35014KT

ENAT Flight Activity (Flightaware)

Listeners: 0 out of 1280 total

Alta Tower (to boat, Harbour Channel 12): 156.600
Alta Tower (to vehicle): 462.400
Alta Tower/Approach: 120.400
Norway Control: 126.700

ENBO Tower
Bodo, Norway

Feed Status: DOWN
Offline since: 2020-11-13 22:27:21 UTC

ENBO 181350Z 35005KT 9999 FEW030 SCT040 04/M02 Q1021 NOSIG

Bodo Tower: 118.100

ENCN Tower/Approach (Archives)
Kristiansand, Norway

Feed Status: UP
Listen in your browser - HTML5 player(in browser, HTML5)
Click here to listen with your own player(launches your MP3 player)

ENCN 181350Z 04007KT 9999 SCT032 BKN048 09/04 Q1022

ENCN Flight Activity (Flightaware)

Listeners: 0 out of 1280 total

Kjevik Tower: 118.100
Kjevik Tower/Approach: 119.950

ENGM App/Polaris ACC (Archives)
Honefoss, Norway

Feed Status: UP
Listen in your browser - HTML5 player(in browser, HTML5)
Click here to listen with your own player(launches your MP3 player)

ENEG Flight Activity (Flightaware)

Listeners: 2 out of 1280 total

ENGM Approach (East): 118.475
ENGM Approach (West): 120.450
Polaris ACC Sector 4: 118.875
Polaris ACC Sector 7: 124.775
Polaris ACC Sector 8: 134.350

ENEV Twr/App/ACC (Archives)
Evenes, Norway

Feed Status: UP
Listen in your browser - HTML5 player(in browser, HTML5)
Click here to listen with your own player(launches your MP3 player)

ENEV 181350Z 34004KT 280V040 9999 3000S VCSH SCT005 SCT035 00/M01 Q1020 RMK WIND 1400FT 35015G26KT

ENEV Flight Activity (Flightaware)

Listeners: 0 out of 1280 total

Evenes Approach: 120.100
Evenes Tower: 118.000
Norway ACC (Bodo Sector 25): 126.450

ENGK Info
Arendal, Norway

Feed Status: DOWN
Offline since: 2021-09-14 23:41:22 UTC


Gullknapp Info: 129.900

ENGM App/Polaris ACC (Archives)
Oslo, Norway

Feed Status: UP
Listen in your browser - HTML5 player(in browser, HTML5)
Click here to listen with your own player(launches your MP3 player)

ENEG Flight Activity (Flightaware)

Listeners: 2 out of 1280 total

ENGM Approach (East): 118.475
ENGM Approach (West): 120.450
Polaris ACC Sector 4: 118.875
Polaris ACC Sector 7: 124.775
Polaris ACC Sector 8: 134.350

ENGM Tower (Archives)
Oslo, Norway

Feed Status: UP
Listen in your browser - HTML5 player(in browser, HTML5)
Click here to listen with your own player(launches your MP3 player)

ENGM 181350Z 19006KT CAVOK 05/M02 Q1022 NOSIG

ENGM Flight Activity (Flightaware)

Listeners: 0 out of 1280 total

Oslo Tower (East): 120.100
Oslo Tower (West): 118.300

ENHD Tower (Archives)
Haugesund, Norway

Feed Status: UP
Listen in your browser - HTML5 player(in browser, HTML5)
Click here to listen with your own player(launches your MP3 player)

ENHD 181350Z 12011KT 9999 BKN043 10/03 Q1017

ENHD Flight Activity (Flightaware)

Listeners: 1 out of 1280 total

Karmoy Tower: 120.500

ENJB CTAF (Archives)
Tonsberg, Norway

Feed Status: UP
Listen in your browser - HTML5 player(in browser, HTML5)
Click here to listen with your own player(launches your MP3 player)

ENTO 181350Z 02004KT 350V060 CAVOK 06/M01 Q1023 NOSIG

ENTO Flight Activity (Flightaware)

Listeners: 0 out of 1280 total

Jarlsberg CTAF: 122.300

ENKJ RDO #1
Kjeller, Norway

Feed Status: DOWN
Offline since: 2021-02-28 20:58:38 UTC

Kjeller RDO: 119.100

ENKJ RDO #2
Kjeller, Norway

Feed Status: DOWN
Offline since: 2021-10-15 00:43:05 UTC

Kjeller RDO: 119.100

ENLI CTAF (Archives)
Farsund, Norway

Feed Status: UP
Listen in your browser - HTML5 player(in browser, HTML5)
Click here to listen with your own player(launches your MP3 player)

ENLI Flight Activity (Flightaware)

Listeners: 0 out of 1280 total

Lista Traffic/Lista Radio: 126.450

ENRK CTAF
Astorp, Norway

Feed Status: DOWN
Offline since: 2021-06-09 11:28:38 UTC

Rakkestad CTAF: 122.950

ENOR Sector 8 (Archives)
Moss, Norway

Feed Status: UP
Listen in your browser - HTML5 player(in browser, HTML5)
Click here to listen with your own player(launches your MP3 player)

ENOR Flight Activity (Flightaware)

Listeners: 0 out of 1280 total

Norway Center (FIR) Sector 8: 118.875

ENRY Tower (Archives)
Moss, Norway

Feed Status: UP
Listen in your browser - HTML5 player(in browser, HTML5)
Click here to listen with your own player(launches your MP3 player)

ENRY 181350Z 00000KT 9999 SCT047 08/M03 Q1023

ENRY Flight Activity (Flightaware)

Listeners: 0 out of 1280 total

Rygge Tower: 119.500

ENTC Tower/App (Archives)
Langnes, Norway

Feed Status: UP
Listen in your browser - HTML5 player(in browser, HTML5)
Click here to listen with your own player(launches your MP3 player)

ENTC 181350Z 02017KT 9999 -SHSN BKN033 00/M02 Q1020 TEMPO VRB05KT 2000 SHSN VV009 RMK WIND 2600FT 36019KT

ENTC Flight Activity (Flightaware)

Listeners: 0 out of 1280 total

Langnes Tower: 118.300
Langnes VDF (Approach): 123.750

ENTO App/Dep (Archives)
Sandefjord, Norway

Feed Status: UP
Listen in your browser - HTML5 player(in browser, HTML5)
Click here to listen with your own player(launches your MP3 player)

ENTO 181350Z 02004KT 350V060 CAVOK 06/M01 Q1023 NOSIG

ENTO Flight Activity (Flightaware)

Listeners: 1 out of 1280 total

Sandefjord Approach (TMA): 134.050

ENTO Control Sector 4 (Archives)
Sandefjord, Norway

Feed Status: UP
Listen in your browser - HTML5 player(in browser, HTML5)
Click here to listen with your own player(launches your MP3 player)

ENTO 181350Z 02004KT 350V060 CAVOK 06/M01 Q1023 NOSIG

ENTO Flight Activity (Flightaware)

Listeners: 0 out of 1280 total

Norway control Sector 4: 118.875

ENTO Tower (Archives)
Sandefjord, Norway

Feed Status: UP
Listen in your browser - HTML5 player(in browser, HTML5)
Click here to listen with your own player(launches your MP3 player)

ENTO 181350Z 02004KT 350V060 CAVOK 06/M01 Q1023 NOSIG

ENTO Flight Activity (Flightaware)

Listeners: 0 out of 1280 total

Sandefjord Tower: 118.650

ENTO Tower/App (Archives)
Sandefjord, Norway

Feed Status: UP
Listen in your browser - HTML5 player(in browser, HTML5)
Click here to listen with your own player(launches your MP3 player)

ENTO 181350Z 02004KT 350V060 CAVOK 06/M01 Q1023 NOSIG

ENTO Flight Activity (Flightaware)

Listeners: 0 out of 1280 total

ENJB Tonsberg Airport - Jarlsberg - CTAF: 122.300
Farris Approach (TCA): 134.050
Sandefjord Tower: 118.650

ENTO Twr/App (Archives)
Sandefjord, Norway

Feed Status: UP
Listen in your browser - HTML5 player(in browser, HTML5)
Click here to listen with your own player(launches your MP3 player)

ENTO 181350Z 02004KT 350V060 CAVOK 06/M01 Q1023 NOSIG

ENTO Flight Activity (Flightaware)

Listeners: 0 out of 1280 total

Sandefjord Approach (TMA): 134.050
Sandefjord Tower: 118.650

ENVA Gnd/Twr/App (Archives)
Trondheim, Norway

Feed Status: UP
Listen in your browser - HTML5 player(in browser, HTML5)
Click here to listen with your own player(launches your MP3 player)

ENVA 181350Z 11005KT 9999 FEW015 SCT022 BKN050 05/03 Q1023 NOSIG RMK WIND 670FT 11006KT

ENVA Flight Activity (Flightaware)

Listeners: 0 out of 1280 total

Trondheim Approach: 118.600
Trondheim Ground: 121.600
Trondheim Tower: 119.400

ENZV Gnd/Twr/App (Archives)
Stavanger, Norway

Feed Status: UP
Listen in your browser - HTML5 player(in browser, HTML5)
Click here to listen with your own player(launches your MP3 player)

ENZV 181350Z 12010KT 9999 -RA FEW012 SCT020 BKN033 10/03 Q1018 NOSIG

ENZV Flight Activity (Flightaware)

Listeners: 1 out of 1280 total

Sola Approach/Departure: 119.600
Sola Ground: 121.750
Sola Tower: 118.350

EPGD Tower/Approach (Archives)
Gdansk, Poland

Feed Status: UP
Listen in your browser - HTML5 player(in browser, HTML5)
Click here to listen with your own player(launches your MP3 player)

EPGD 181330Z 30008KT 9999 FEW047 10/03 Q1022

EPGD Flight Activity (Flightaware)

Listeners: 1 out of 1280 total

Gdansk Approach: 127.275
Gdansk Tower: 118.100

EPKK Tower/App (Archives)
Krakow, Poland

Feed Status: UP
Listen in your browser - HTML5 player(in browser, HTML5)
Click here to listen with your own player(launches your MP3 player)

EPKK 181330Z 26009KT 6000 OVC006 09/08 Q1025

EPKK Flight Activity (Flightaware)

Listeners: 3 out of 1280 total

Krakow Approach: 121.075
Krakow Approach: 123.255
Krakow Tower: 123.255

EPKR CTAF (Archives)
Krosno, Poland

Feed Status: UP
Listen in your browser - HTML5 player(in browser, HTML5)
Click here to listen with your own player(launches your MP3 player)

EPKR Flight Activity (Flightaware)

Listeners: 0 out of 1280 total

Krosno CTAF: 119.555

EPKT Del/Twr/App (Archives)
Katowice, Poland

Feed Status: UP
Listen in your browser - HTML5 player(in browser, HTML5)
Click here to listen with your own player(launches your MP3 player)

EPKT 181330Z 27008KT 6000 BKN003 OVC007 08/08 Q1025

EPKT Flight Activity (Flightaware)

Listeners: 0 out of 1280 total

Katowice Delivery: 121.800
Katowice Tower: 129.250
Krakow Approach: 135.400
Krakow Approach: 121.075

EPKT Delivery/Approach (Archives)
Katowice, Poland

Feed Status: UP
Listen in your browser - HTML5 player(in browser, HTML5)
Click here to listen with your own player(launches your MP3 player)

EPKT 181330Z 27008KT 6000 BKN003 OVC007 08/08 Q1025

EPKT Flight Activity (Flightaware)

Listeners: 0 out of 1280 total

Katowice Delivery: 121.800
Krakow Approach: 121.075

EPKT Tower/Approach (Archives)
Katowice, Poland

Feed Status: UP
Listen in your browser - HTML5 player(in browser, HTML5)
Click here to listen with your own player(launches your MP3 player)

EPKT 181330Z 27008KT 6000 BKN003 OVC007 08/08 Q1025

EPKT Flight Activity (Flightaware)

Listeners: 0 out of 1280 total

Katowice Tower: 129.250
Krakow Approach: 135.400

EPLL Tower (Archives)
Lodz, Poland

Feed Status: UP
Listen in your browser - HTML5 player(in browser, HTML5)
Click here to listen with your own player(launches your MP3 player)

EPLL 181330Z 27008KT 7000 -RA SCT006 BKN009 10/08 Q1024

EPLL Flight Activity (Flightaware)

Listeners: 0 out of 1280 total

Lodz Tower: 124.230

EPLS CTAF/Radio (Archives)
Leszno, Poland

Feed Status: UP
Listen in your browser - HTML5 player(in browser, HTML5)
Click here to listen with your own player(launches your MP3 player)

EPLS Flight Activity (Flightaware)

Listeners: 0 out of 1280 total

Leszno Radio: 122.305

EPML Info (Archives)
Mielec, Poland

Feed Status: UP
Listen in your browser - HTML5 player(in browser, HTML5)
Click here to listen with your own player(launches your MP3 player)

EPML Flight Activity (Flightaware)

Listeners: 1 out of 1280 total

Mielec Info: 119.105

EPPO Twr/App/FIS (Archives)
Poznan, Poland

Feed Status: UP
Listen in your browser - HTML5 player(in browser, HTML5)
Click here to listen with your own player(launches your MP3 player)

EPPO 181330Z 23006KT CAVOK 12/08 Q1023

EPPO Flight Activity (Flightaware)

Listeners: 1 out of 1280 total

Poznan Approach: 129.025
Poznan Approach: 127.225
Poznan FIS: 126.300
Poznan Tower: 119.975

EPRZ Del/Twr/EPWW Radar (Archives)
Jasionka, Poland

Feed Status: UP
Listen in your browser - HTML5 player(in browser, HTML5)
Click here to listen with your own player(launches your MP3 player)

EPRZ 181330Z 27008KT 5000 -DZ BR OVC005 08/08 Q1024

EPRZ Flight Activity (Flightaware)

Listeners: 3 out of 1280 total

EPWW Radar: 134.175
EPWW Radar: 120.950
Rzeszow Delivery: 121.800
Rzeszow Tower: 126.800

EPWA Approach #1 (Archives)
Warsaw, Poland

Feed Status: UP
Listen in your browser - HTML5 player(in browser, HTML5)
Click here to listen with your own player(launches your MP3 player)

EPWA 181330Z 27009KT 9999 FEW041 12/05 Q1022 NOSIG

EPWA Flight Activity (Flightaware)

Listeners: 4 out of 1280 total

Warsaw Approach: 128.805

EPWA Director (Archives)
Warsaw, Poland

Feed Status: UP
Listen in your browser - HTML5 player(in browser, HTML5)
Click here to listen with your own player(launches your MP3 player)

EPWA 181330Z 27009KT 9999 FEW041 12/05 Q1022 NOSIG

EPWA Flight Activity (Flightaware)

Listeners: 0 out of 1280 total

Warsaw Director: 129.375

EPWA Ground (Archives)
Warsaw, Poland

Feed Status: UP
Listen in your browser - HTML5 player(in browser, HTML5)
Click here to listen with your own player(launches your MP3 player)

EPWA 181330Z 27009KT 9999 FEW041 12/05 Q1022 NOSIG

EPWA Flight Activity (Flightaware)

Listeners: 2 out of 1280 total

Warsaw Ground: 121.900

EPWA Tower (Archives)
Warsaw, Poland

Feed Status: UP
Listen in your browser - HTML5 player(in browser, HTML5)
Click here to listen with your own player(launches your MP3 player)

EPWA 181330Z 27009KT 9999 FEW041 12/05 Q1022 NOSIG

EPWA Flight Activity (Flightaware)

Listeners: 2 out of 1280 total

Warsaw Tower: 118.300

EPWR Twr/App (Archives)
Wroclaw, Poland

Feed Status: UP
Listen in your browser - HTML5 player(in browser, HTML5)
Click here to listen with your own player(launches your MP3 player)

EPPO 181330Z 23006KT CAVOK 12/08 Q1023

EPPO Flight Activity (Flightaware)

Listeners: 2 out of 1280 total

Poznan Approach (South): 127.225

EPRZ Del/Twr/EPWW Radar (Archives)
Jasionka, Poland

Feed Status: UP
Listen in your browser - HTML5 player(in browser, HTML5)
Click here to listen with your own player(launches your MP3 player)

EPRZ 181330Z 27008KT 5000 -DZ BR OVC005 08/08 Q1024

EPRZ Flight Activity (Flightaware)

Listeners: 3 out of 1280 total

EPWW Radar: 134.175
EPWW Radar: 120.950
Rzeszow Delivery: 121.800
Rzeszow Tower: 126.800

ESDF Gnd/Twr (Archives)
Ronneby, Sweden

Feed Status: UP
Listen in your browser - HTML5 player(in browser, HTML5)
Click here to listen with your own player(launches your MP3 player)

ESDF 181350Z VRB02KT CAVOK 10/00 Q1022

ESDF Flight Activity (Flightaware)

Listeners: 1 out of 1280 total

Ronneby Ground: 121.850
Ronneby Tower: 119.200

ESDF Ronneby Control (Archives)
Ronneby, Sweden

Feed Status: UP
Listen in your browser - HTML5 player(in browser, HTML5)
Click here to listen with your own player(launches your MP3 player)

ESDF 181350Z VRB02KT CAVOK 10/00 Q1022

ESDF Flight Activity (Flightaware)

Listeners: 3 out of 1280 total

Ronneby Control: 128.450

ESMQ Tower (Archives)
Kalmar, Sweden

Feed Status: UP
Listen in your browser - HTML5 player(in browser, HTML5)
Click here to listen with your own player(launches your MP3 player)

ESMQ 181350Z 34004KT CAVOK 10/M03 Q1022

ESMQ Flight Activity (Flightaware)

Listeners: 1 out of 1280 total

Kalmar Tower: 130.805

ESMS Radar (Archives)
Svedala, Sweden

Feed Status: UP
Listen in your browser - HTML5 player(in browser, HTML5)
Click here to listen with your own player(launches your MP3 player)

ESMS 181350Z 10007KT 9999 BKN019 09/07 Q1022

ESMS Flight Activity (Flightaware)

Listeners: 0 out of 1280 total

Sweden Control (Sector L, Malmo): 134.980

ESMS Tower (Archives)
Svedala, Sweden

Feed Status: UP
Listen in your browser - HTML5 player(in browser, HTML5)
Click here to listen with your own player(launches your MP3 player)

ESMS 181350Z 10007KT 9999 BKN019 09/07 Q1022

ESMS Flight Activity (Flightaware)

Listeners: 0 out of 1280 total

Malmo Tower: 118.800

ESOE Tower/Control (Archives)
Orebro, Sweden

Feed Status: UP
Listen in your browser - HTML5 player(in browser, HTML5)
Click here to listen with your own player(launches your MP3 player)

ESOE 181350Z AUTO 24007KT 9999 NCD 09/M01 Q1022

ESOE Flight Activity (Flightaware)

Listeners: 0 out of 1280 total

Orebro Tower: 120.275
Orebro Tower: 120.280
Sweden Control: 131.125
Sweden Control (aircraft only): 131.125

ESOW Twr/CTAF/Control (Archives)
Stockholm, Sweden

Feed Status: UP
Listen in your browser - HTML5 player(in browser, HTML5)
Click here to listen with your own player(launches your MP3 player)

ESOW 181350Z 31008KT 260V340 CAVOK 09/M03 Q1021

ESOW Flight Activity (Flightaware)

Listeners: 4 out of 1280 total

Arlanda Approach: 123.750
Arlanda Approach: 126.655
Arlanda Approach: 130.325
Arlanda Departure: 124.100
Arlanda Tower: 118.505
Arlanda Tower: 128.725
Enkoping/Langtora: 123.525
Eskilstuna: 126.850
Frolunda: 123.400
Johannisberg CTAF: 123.650
Ska Edeby: 123.350
Stockholm Control: 120.155
Stockholm Control: 118.405
Stockholm Control: 118.280
Sweden Control: 133.260
Sweden Control: 129.175
Sweden Control: 131.130
Uppsala Tower: 119.200
Uppsala/Sundbro: 123.350
Vasteras Control: 125.955
Vasteras Tower: 130.600

ESPA Twr/Control (Archives)
Lulea, Sweden

Feed Status: UP
Listen in your browser - HTML5 player(in browser, HTML5)
Click here to listen with your own player(launches your MP3 player)

ESPA 181350Z 33011KT CAVOK 03/M03 Q1016

ESPA Flight Activity (Flightaware)

Listeners: 0 out of 1280 total

Emergency/Guard: 121.500
Kallax Control: 125.450
Kallax Tower: 128.200
Sweden Control North: 131.050

ESSG Misc (Archives)
Ludvika, Sweden

Feed Status: UP
Listen in your browser - HTML5 player(in browser, HTML5)
Click here to listen with your own player(launches your MP3 player)

ESSG Flight Activity (Flightaware)

Listeners: 0 out of 1280 total

Borlange Tower: 127.305
Club Frequency: 123.375
Club Frequency: 123.450
Club Frequency: 123.425
Club Frequency: 123.525
Club Frequency: 123.350
Club Frequency: 123.300
Club Frequency: 123.200
Club Frequency: 123.550
Club Frequency: 123.600
Club Frequency: 123.650
Emergency/Guard: 121.500
Hagfors Airport: 122.230
Karlstad Airport: 119.455
Ludvika Club Freq: 123.150
Mora Airport: 119.055
Orebro Airport: 120.280
Orsa Club Frequency: 123.400
Orsa Club Frequency: 123.500
Scandinavian Mountains Airport: 124.460
Search and Rescue: 123.100
Sweden Control: 131.055
Sweden Control: 131.125
Sweden Control: 131.155
Sweden Control: 132.765
Sweden Control: 131.130
Sweden Control: 129.180
Sweden Control: 128.630
Sweden Control: 132.150
Torsby Airport: 122.055
Vasteras Control: 125.955

ESSL Twr/App/Control
Linkoping, Sweden

Feed Status: DOWN
Offline since: 2021-10-18 13:01:38 UTC

ESSL 181350Z 29008KT 260V350 CAVOK 08/M01 Q1022

Emergency/Guard: 121.500
Linkoping Tower: 118.800
Linkoping Tower (Secondary): 123.400
Ostgota Control: 127.350
Ostgota Control: 126.400
Ostgota Control: 135.850
Ostgota Control: 132.950
Ostgota Control: 128.700
Ostgota Control (Malmen Sector): 133.100
Ostgota Control/Sweden Control: 118.400

ESVQ CTAF
Koping, Sweden

Feed Status: DOWN
Offline since: 2021-09-28 07:56:21 UTC

Koping CTAF: 123.150

EVRA Approach (Archives)
Riga, Latvia

Feed Status: UP
Listen in your browser - HTML5 player(in browser, HTML5)
Click here to listen with your own player(launches your MP3 player)

EVRA 181350Z 30007KT 260V340 9999 FEW018CB SCT035 08/01 Q1017 R36/190095 NOSIG

EVRA Flight Activity (Flightaware)

Listeners: 1 out of 1280 total

Riga Approach: 129.925

EVRA CTAF (Archives)
Riga, Latvia

Feed Status: UP
Listen in your browser - HTML5 player(in browser, HTML5)
Click here to listen with your own player(launches your MP3 player)

EVRA 181350Z 30007KT 260V340 9999 FEW018CB SCT035 08/01 Q1017 R36/190095 NOSIG

EVRA Flight Activity (Flightaware)

Listeners: 0 out of 1280 total

Riga Approach (evenings): 134.850
Riga CTAF: 123.950

EVRA FIC (Archives)
Riga, Latvia

Feed Status: UP
Listen in your browser - HTML5 player(in browser, HTML5)
Click here to listen with your own player(launches your MP3 player)

EVRA 181350Z 30007KT 260V340 9999 FEW018CB SCT035 08/01 Q1017 R36/190095 NOSIG

EVRA Flight Activity (Flightaware)

Listeners: 0 out of 1280 total

Riga FIC: 120.225

EVRA Tower/Guard (Archives)
Riga, Latvia

Feed Status: UP
Listen in your browser - HTML5 player(in browser, HTML5)
Click here to listen with your own player(launches your MP3 player)

EVRA 181350Z 30007KT 260V340 9999 FEW018CB SCT035 08/01 Q1017 R36/190095 NOSIG

EVRA Flight Activity (Flightaware)

Listeners: 0 out of 1280 total

Emergency/Guard: 121.500
Riga Tower: 118.100

EYVI Twr/App/Misc (Archives)
Vilnius, Lithuania

Feed Status: UP
Listen in your browser - HTML5 player(in browser, HTML5)
Click here to listen with your own player(launches your MP3 player)

EYVI 181350Z 28009KT 250V310 9999 SCT040 09/00 Q1018 NOSIG

EYVI Flight Activity (Flightaware)

Listeners: 2 out of 1280 total

Emergency / GUARD: 121.500
FlyLAL, AirBaltic transit services: 131.900
FlyLAL, AirBaltic transit services: 131.600
FlyLAL, AirBaltic transit services: 131.500
Kaunas Approach (EYKA): 124.200
Vilnius Approach: 120.700
Vilnius Control: 132.275
Vilnius Control: 133.425
Vilnius Control: 133.300
Vilnius FIS: 123.850
Vilnius Tower: 118.200
Zokniai A/G (mil): 122.775

EYVP CTAF
Paluknys, Lithuania

Feed Status: DOWN
Offline since: 2021-09-04 17:32:39 UTC

EYVP Paluknis CTAF: 119.100

LBBG Twr/App (Archives)
Burgas, Bulgaria

Feed Status: UP
Listen in your browser - HTML5 player(in browser, HTML5)
Click here to listen with your own player(launches your MP3 player)

LBBG 181400Z 11008KT CAVOK 16/10 Q1023 NOSIG

LBBG Flight Activity (Flightaware)

Listeners: 0 out of 1280 total

Burgas Approach: 125.100
Burgas Tower: 118.000

LBPD Tower (Archives)
Plovdiv, Bulgaria

Feed Status: UP
Listen in your browser - HTML5 player(in browser, HTML5)
Click here to listen with your own player(launches your MP3 player)

LBSF 181400Z 23005KT 200V260 9999 FEW026 14/08 Q1023 NOSIG

LBSF Flight Activity (Flightaware)

Listeners: 1 out of 1280 total

Plovdiv Tower: 125.500
Plovdiv Tower: 133.600

LBSF ATIS (Archives)
Sofia, Bulgaria

Feed Status: UP
Listen in your browser - HTML5 player(in browser, HTML5)
Click here to listen with your own player(launches your MP3 player)

LBSF 181400Z 23005KT 200V260 9999 FEW026 14/08 Q1023 NOSIG

LBSF Flight Activity (Flightaware)

Listeners: 0 out of 1280 total

Sofia ATIS: 126.680

LBSF Sofia Control East (Archives)
Sofia, Bulgaria

Feed Status: UP
Listen in your browser - HTML5 player(in browser, HTML5)
Click here to listen with your own player(launches your MP3 player)

LBSF 181400Z 23005KT 200V260 9999 FEW026 14/08 Q1023 NOSIG

LBSF Flight Activity (Flightaware)

Listeners: 3 out of 1280 total

Sofia Control (East/Middle Sector): 129.100
Sofia Control (Varna Sector): 134.700

LBSF Twr/App #1 (Archives)
Sofia, Bulgaria

Feed Status: UP
Listen in your browser - HTML5 player(in browser, HTML5)
Click here to listen with your own player(launches your MP3 player)

LBSF 181400Z 23005KT 200V260 9999 FEW026 14/08 Q1023 NOSIG

LBSF Flight Activity (Flightaware)

Listeners: 5 out of 1280 total

Sofia Approach: 123.700
Sofia Approach: 129.900
Sofia Tower: 118.100
Sofia Tower: 120.200

LBSF Twr/App #2 (Archives)
Sofia, Bulgaria

Feed Status: UP
Listen in your browser - HTML5 player(in browser, HTML5)
Click here to listen with your own player(launches your MP3 player)

LBSF 181400Z 23005KT 200V260 9999 FEW026 14/08 Q1023 NOSIG

LBSF Flight Activity (Flightaware)

Listeners: 0 out of 1280 total

Sofia Approach: 123.700
Sofia Tower: 118.100

LBWN Tower/Approach (Archives)
Varna, Bulgaria

Feed Status: UP
Listen in your browser - HTML5 player(in browser, HTML5)
Click here to listen with your own player(launches your MP3 player)

LBWN 181400Z 11005KT 9999 BKN034 OVC048 14/09 Q1022 NOSIG

LBWN Flight Activity (Flightaware)

Listeners: 0 out of 1280 total

Varna Approach: 121.000
Varna Tower: 119.500

Bordeaux Control (Archives)
Bordeaux, France

Feed Status: UP
Listen in your browser - HTML5 player(in browser, HTML5)
Click here to listen with your own player(launches your MP3 player)

LFBD 181330Z AUTO 15005KT 120V180 CAVOK 24/14 Q1021 NOSIG

LFBD Flight Activity (Flightaware)

Listeners: 4 out of 1280 total

Air to Air: 123.450
Bordeaux Control BN FL<300: 127.675
Bordeaux Control L3 FL>300: 134.250
Bordeaux Control R2 FL>300: 133.575
Emergency/Guard: 121.500

LFBD Aquitane Approach (Archives)
Bordeaux, France

Feed Status: UP
Listen in your browser - HTML5 player(in browser, HTML5)
Click here to listen with your own player(launches your MP3 player)

LFBD 181330Z AUTO 15005KT 120V180 CAVOK 24/14 Q1021 NOSIG

LFBD Flight Activity (Flightaware)

Listeners: 0 out of 1280 total

Aquitane Approach: 129.875

LFBD ATIS (Archives)
Bordeaux, France

Feed Status: UP
Listen in your browser - HTML5 player(in browser, HTML5)
Click here to listen with your own player(launches your MP3 player)

LFBD 181330Z AUTO 15005KT 120V180 CAVOK 24/14 Q1021 NOSIG

LFBD Flight Activity (Flightaware)

Listeners: 0 out of 1280 total

Merignac ATIS: 131.150

LFBD Bordeaux Control Sector X1 (Archives)
Bordeaux, France

Feed Status: UP
Listen in your browser - HTML5 player(in browser, HTML5)
Click here to listen with your own player(launches your MP3 player)

LFBD 181330Z AUTO 15005KT 120V180 CAVOK 24/14 Q1021 NOSIG

LFBD Flight Activity (Flightaware)

Listeners: 0 out of 1280 total

Bordeaux Control (Sector X1): 118.425

LFBD Ground (Archives)
Bordeaux, France

Feed Status: UP
Listen in your browser - HTML5 player(in browser, HTML5)
Click here to listen with your own player(launches your MP3 player)

LFBD 181330Z AUTO 15005KT 120V180 CAVOK 24/14 Q1021 NOSIG

LFBD Flight Activity (Flightaware)

Listeners: 0 out of 1280 total

Merignac Ground: 121.900

LFBD Tower (Archives)
Bordeaux, France

Feed Status: UP
Listen in your browser - HTML5 player(in browser, HTML5)
Click here to listen with your own player(launches your MP3 player)

LFBD 181330Z AUTO 15005KT 120V180 CAVOK 24/14 Q1021 NOSIG

LFBD Flight Activity (Flightaware)

Listeners: 0 out of 1280 total

Merignac Tower: 118.300

Bordeaux Control (Archives)
Angouleme, France

Feed Status: UP
Listen in your browser - HTML5 player(in browser, HTML5)
Click here to listen with your own player(launches your MP3 player)

LFBD 181330Z AUTO 15005KT 120V180 CAVOK 24/14 Q1021 NOSIG

LFBD Flight Activity (Flightaware)

Listeners: 4 out of 1280 total

Air to Air: 123.450
Bordeaux Control BN FL<300: 127.675
Bordeaux Control L3 FL>300: 134.250
Bordeaux Control R2 FL>300: 133.575
Emergency/Guard: 121.500

LFLL Tower (Archives)
Lyon, France

Feed Status: UP
Listen in your browser - HTML5 player(in browser, HTML5)
Click here to listen with your own player(launches your MP3 player)

LFLL 181330Z VRB02KT CAVOK 19/09 Q1023 NOSIG

LFLL Flight Activity (Flightaware)

Listeners: 2 out of 1280 total

Lyon Tower: 120.450

Lyon FIS (Archives)
Lyon, France

Feed Status: UP
Listen in your browser - HTML5 player(in browser, HTML5)
Click here to listen with your own player(launches your MP3 player)

LFLL 181330Z VRB02KT CAVOK 19/09 Q1023 NOSIG

LFLL Flight Activity (Flightaware)

Listeners: 2 out of 1280 total

Lyon FIS: 135.200

LFLP Twr/LFLB App
Annecy, France

Feed Status: DOWN
Offline since: 2021-10-17 15:51:06 UTC

LFLP 181330Z AUTO 28005KT 230V320 CAVOK 18/08 Q1023 NOSIG

Annecy Tower: 118.200
Chambery Approach: 121.205
Chambery Info: 123.700

LFLY Tower (Archives)
Bron, France

Feed Status: UP
Listen in your browser - HTML5 player(in browser, HTML5)
Click here to listen with your own player(launches your MP3 player)

LFLY 181330Z AUTO VRB03KT CAVOK 20/08 Q1023 NOSIG

LFLY Flight Activity (Flightaware)

Listeners: 1 out of 1280 total

Lyon-Bron Tower: 118.100

Lyon FIS (Archives)
Bron, France

Feed Status: UP
Listen in your browser - HTML5 player(in browser, HTML5)
Click here to listen with your own player(launches your MP3 player)

LFLL 181330Z VRB02KT CAVOK 19/09 Q1023 NOSIG

LFLL Flight Activity (Flightaware)

Listeners: 2 out of 1280 total

Lyon FIS: 135.200

LFMD Ground/Tower (Archives)
Cannes, France

Feed Status: UP
Listen in your browser - HTML5 player(in browser, HTML5)
Click here to listen with your own player(launches your MP3 player)

LFMD 181330Z AUTO 17007KT 140V200 CAVOK 20/12 Q1023 NOSIG

LFMD Flight Activity (Flightaware)

Listeners: 0 out of 1280 total

Cannes Ground: 121.805
Cannes Tower: 118.625

LFMN Approach (Archives)
Nice, France

Feed Status: UP
Listen in your browser - HTML5 player(in browser, HTML5)
Click here to listen with your own player(launches your MP3 player)

LFMN 181330Z 19006KT 9999 FEW030 20/13 Q1023 NOSIG

LFMN Flight Activity (Flightaware)

Listeners: 0 out of 1280 total

Nice Approach: 128.205

LFMN Control (High) (Archives)
Nice, France

Feed Status: UP
Listen in your browser - HTML5 player(in browser, HTML5)
Click here to listen with your own player(launches your MP3 player)

LFMN 181330Z 19006KT 9999 FEW030 20/13 Q1023 NOSIG

LFMN Flight Activity (Flightaware)

Listeners: 0 out of 1280 total

Marseille Control Sector K1 (FL245-FL305): 126.780

LFMN FIS/Approach (Archives)
Nice, France

Feed Status: UP
Listen in your browser - HTML5 player(in browser, HTML5)
Click here to listen with your own player(launches your MP3 player)

LFMN 181330Z 19006KT 9999 FEW030 20/13 Q1023 NOSIG

LFMN Flight Activity (Flightaware)

Listeners: 0 out of 1280 total

Nice FIS/Approach (TMA4 NICE 2500ft - FL115): 120.850

LFMN Ground/Tower (Archives)
Nice, France

Feed Status: UP
Listen in your browser - HTML5 player(in browser, HTML5)
Click here to listen with your own player(launches your MP3 player)

LFMN 181330Z 19006KT 9999 FEW030 20/13 Q1023 NOSIG

LFMN Flight Activity (Flightaware)

Listeners: 0 out of 1280 total

Nice Ground: 121.700
Nice Tower: 118.700

LFPG Tower (Archives)
Paris, France

Feed Status: UP
Listen in your browser - HTML5 player(in browser, HTML5)
Click here to listen with your own player(launches your MP3 player)

LFPG 181330Z 20010KT CAVOK 18/12 Q1021 NOSIG

LFPG Flight Activity (Flightaware)

Listeners: 2 out of 1280 total

De Gaulle Tower: 120.900
De Gaulle Tower: 119.250

LFPO Approach (Archives)
Paris, France

Feed Status: UP
Listen in your browser - HTML5 player(in browser, HTML5)
Click here to listen with your own player(launches your MP3 player)

LFPO 181330Z 21010KT CAVOK 18/13 Q1021 NOSIG

LFPO Flight Activity (Flightaware)

Listeners: 2 out of 1280 total

Orly Approach: 124.450
Orly Approach: 118.850
Orly Approach: 120.850
Orly Approach: 123.875

LFPO Departure (Archives)
Paris, France

Feed Status: UP
Listen in your browser - HTML5 player(in browser, HTML5)
Click here to listen with your own player(launches your MP3 player)

LFPO 181330Z 21010KT CAVOK 18/13 Q1021 NOSIG

LFPO Flight Activity (Flightaware)

Listeners: 2 out of 1280 total

Orly Departure: 127.750

LFPO Tower (Archives)
Paris, France

Feed Status: UP
Listen in your browser - HTML5 player(in browser, HTML5)
Click here to listen with your own player(launches your MP3 player)

LFPO 181330Z 21010KT CAVOK 18/13 Q1021 NOSIG

LFPO Flight Activity (Flightaware)

Listeners: 8 out of 1280 total

Orly Tower: 120.500
Orly Tower: 118.700

LFPZ ATIS
Villacoublay, France

Feed Status: DOWN
Offline since: 2021-09-23 12:52:39 UTC

St. Cyr-L'Ecole ATIS: 131.025

LFPZ Tower
Villacoublay, France

Feed Status: DOWN
Offline since: 2021-07-24 15:28:39 UTC

St. Cyr-L'Ecole Tower: 118.000

LFSB Tower
Basel, Switzerland

Feed Status: DOWN
Offline since: 2021-09-13 19:32:39 UTC

LFSB 181330Z VRB02KT CAVOK 18/09 Q1024 NOSIG

Mulhouse Tower: 118.300

LHBP Approach (Archives)
Budapest, Hungary

Feed Status: UP
Listen in your browser - HTML5 player(in browser, HTML5)
Click here to listen with your own player(launches your MP3 player)

LHBP 181400Z 32005KT 290V360 9999 FEW045 14/04 Q1025 NOSIG

LHBP Flight Activity (Flightaware)

Listeners: 2 out of 1280 total

Budapest Approach: 122.975
Budapest Approach (Upper): 123.860

LHBP Approach (Director) (Archives)
Budapest, Hungary

Feed Status: UP
Listen in your browser - HTML5 player(in browser, HTML5)
Click here to listen with your own player(launches your MP3 player)

LHBP 181400Z 32005KT 290V360 9999 FEW045 14/04 Q1025 NOSIG

LHBP Flight Activity (Flightaware)

Listeners: 0 out of 1280 total

Budapest Director: 119.510

LHBP ATIS (Archives)
Budapest, Hungary

Feed Status: UP
Listen in your browser - HTML5 player(in browser, HTML5)
Click here to listen with your own player(launches your MP3 player)

LHBP 181400Z 32005KT 290V360 9999 FEW045 14/04 Q1025 NOSIG

LHBP Flight Activity (Flightaware)

Listeners: 0 out of 1280 total

Budapest ATIS: 132.380

LHBP Clearance Delivery (Archives)
Budapest, Hungary

Feed Status: UP
Listen in your browser - HTML5 player(in browser, HTML5)
Click here to listen with your own player(launches your MP3 player)

LHBP 181400Z 32005KT 290V360 9999 FEW045 14/04 Q1025 NOSIG

LHBP Flight Activity (Flightaware)

Listeners: 0 out of 1280 total

Budapest Clearance Delivery: 134.540

LHBP Ground (Archives)
Budapest, Hungary

Feed Status: UP
Listen in your browser - HTML5 player(in browser, HTML5)
Click here to listen with your own player(launches your MP3 player)

LHBP 181400Z 32005KT 290V360 9999 FEW045 14/04 Q1025 NOSIG

LHBP Flight Activity (Flightaware)

Listeners: 1 out of 1280 total

Budapest Ground: 121.910

LHBP Info (Archives)
Budapest, Hungary

Feed Status: UP
Listen in your browser - HTML5 player(in browser, HTML5)
Click here to listen with your own player(launches your MP3 player)

LHBP 181400Z 32005KT 290V360 9999 FEW045 14/04 Q1025 NOSIG

LHBP Flight Activity (Flightaware)

Listeners: 2 out of 1280 total

Budapest Info: 119.350

LHBP Tower (Archives)
Budapest, Hungary

Feed Status: UP
Listen in your browser - HTML5 player(in browser, HTML5)
Click here to listen with your own player(launches your MP3 player)

LHBP 181400Z 32005KT 290V360 9999 FEW045 14/04 Q1025 NOSIG

LHBP Flight Activity (Flightaware)

Listeners: 0 out of 1280 total

Budapest Tower: 118.100

LHBP Twr/Info (Archives)
Budapest, Hungary

Feed Status: UP
Listen in your browser - HTML5 player(in browser, HTML5)
Click here to listen with your own player(launches your MP3 player)

LHBP 181400Z 32005KT 290V360 9999 FEW045 14/04 Q1025 NOSIG

LHBP Flight Activity (Flightaware)

Listeners: 1 out of 1280 total

Budapest Info: 119.350
Budapest Tower: 118.100

LHCC Control (East/West) (Archives)
Budapest, Hungary

Feed Status: UP
Listen in your browser - HTML5 player(in browser, HTML5)
Click here to listen with your own player(launches your MP3 player)

LHBP 181400Z 32005KT 290V360 9999 FEW045 14/04 Q1025 NOSIG

LHBP Flight Activity (Flightaware)

Listeners: 0 out of 1280 total

Budapest Control (East Low Sector): 120.375
Budapest Control (West Low Sector): 133.200

LHDC Info/Tower (Archives)
Debrecen, Hungary

Feed Status: UP
Listen in your browser - HTML5 player(in browser, HTML5)
Click here to listen with your own player(launches your MP3 player)

LHDC 181315Z AUTO VRB02KT 7000 NCD 12/04 Q1024 NOSIG

LHDC Flight Activity (Flightaware)

Listeners: 0 out of 1280 total

Debrecen Info/Tower: 125.900

LHEM CTAF (Archives)
Esztergom, Hungary

Feed Status: UP
Listen in your browser - HTML5 player(in browser, HTML5)
Click here to listen with your own player(launches your MP3 player)

LHEM Flight Activity (Flightaware)

Listeners: 0 out of 1280 total

Esztergom CTAF: 126.850

LHOY CTAF (Archives)
Ocseny, Hungary

Feed Status: UP
Listen in your browser - HTML5 player(in browser, HTML5)
Click here to listen with your own player(launches your MP3 player)

LHOY Flight Activity (Flightaware)

Listeners: 0 out of 1280 total

Ocseny CTAF: 122.830

LHPR Info/AFIS (Archives)
Gyor, Hungary

Feed Status: UP
Listen in your browser - HTML5 player(in browser, HTML5)
Click here to listen with your own player(launches your MP3 player)

LHPR 181315Z AUTO 31011KT 260V340 CAVOK 14/05 Q1026 NOSIG

LHPR Flight Activity (Flightaware)

Listeners: 1 out of 1280 total

Gyor AFIS: 129.910

LJLJ Info (Archives)
Ljubljana, Slovenia

Feed Status: UP
Listen in your browser - HTML5 player(in browser, HTML5)
Click here to listen with your own player(launches your MP3 player)

LJLJ 181330Z 16003KT 110V250 9999 FEW050 14/08 Q1025 NOSIG

LJLJ Flight Activity (Flightaware)

Listeners: 1 out of 1280 total

Ljubljana Info: 118.475

LJLJ Radar (Archives)
Ljubljana, Slovenia

Feed Status: UP
Listen in your browser - HTML5 player(in browser, HTML5)
Click here to listen with your own player(launches your MP3 player)

LJLJ 181330Z 16003KT 110V250 9999 FEW050 14/08 Q1025 NOSIG

LJLJ Flight Activity (Flightaware)

Listeners: 0 out of 1280 total

Ljubljana Approach: 135.275

LJLJ Tower (Archives)
Ljubljana, Slovenia

Feed Status: UP
Listen in your browser - HTML5 player(in browser, HTML5)
Click here to listen with your own player(launches your MP3 player)

LJLJ 181330Z 16003KT 110V250 9999 FEW050 14/08 Q1025 NOSIG

LJLJ Flight Activity (Flightaware)

Listeners: 1 out of 1280 total

Ljubljana Tower: 118.000

LJMB Tower (Archives)
Maribor, Slovenia

Feed Status: UP
Listen in your browser - HTML5 player(in browser, HTML5)
Click here to listen with your own player(launches your MP3 player)

LJMB 181330Z 01004KT 330V060 9999 SCT026 14/06 Q1026

LJMB Flight Activity (Flightaware)

Listeners: 0 out of 1280 total

Maribor Tower/Approach: 119.200

LJMS CTAF (Archives)
Murska Sobota, Slovenia

Feed Status: UP
Listen in your browser - HTML5 player(in browser, HTML5)
Click here to listen with your own player(launches your MP3 player)

LJMS Flight Activity (Flightaware)

Listeners: 0 out of 1280 total

Murska Sobota Aerodrome Radio: 123.500

LJPZ Tower
Secovlje, Slovenia

Feed Status: DOWN
Offline since: 2021-09-25 19:33:40 UTC

LJPZ 181330Z 30006KT CAVOK 18/10 Q1024

Portoroz Tower: 124.875

LKKV Tower
Karlovy Vary, Czech Republic

Feed Status: DOWN
Offline since: 2021-07-25 13:44:06 UTC

LKKV 181330Z 29004KT 250V330 CAVOK 13/04 Q1025

Vary Tower: 121.230

LKPM Tower (Archives)
Pribram, Czech Republic

Feed Status: UP
Listen in your browser - HTML5 player(in browser, HTML5)
Click here to listen with your own player(launches your MP3 player)

LKPM Flight Activity (Flightaware)

Listeners: 0 out of 1280 total

Pribram Tower: 118.755

LKAA FIR (High) (Archives)
Prague, Czech Republic

Feed Status: UP
Listen in your browser - HTML5 player(in browser, HTML5)
Click here to listen with your own player(launches your MP3 player)

LKAA Flight Activity (Flightaware)

Listeners: 0 out of 1280 total

LKAA FIR Sector West High / Praha Radar : 132.065

LKAA FIR (Low) (Archives)
Prague, Czech Republic

Feed Status: UP
Listen in your browser - HTML5 player(in browser, HTML5)
Click here to listen with your own player(launches your MP3 player)

LKAA Flight Activity (Flightaware)

Listeners: 0 out of 1280 total

LKAA FIR Sector West Low / Praha Radar: 120.275

LKPR Approach (Archives)
Prague, Czech Republic

Feed Status: UP
Listen in your browser - HTML5 player(in browser, HTML5)
Click here to listen with your own player(launches your MP3 player)

LKPR 181330Z 19006KT 160V230 CAVOK 15/03 Q1025 NOSIG

LKPR Flight Activity (Flightaware)

Listeners: 2 out of 1280 total

Prague Approach/Radar: 127.580

LKPR Clearance Del (Archives)
Prague, Czech Republic

Feed Status: UP
Listen in your browser - HTML5 player(in browser, HTML5)
Click here to listen with your own player(launches your MP3 player)

LKPR 181330Z 19006KT 160V230 CAVOK 15/03 Q1025 NOSIG

LKPR Flight Activity (Flightaware)

Listeners: 0 out of 1280 total

Prague/Ruzyne Clearance Delivery: 120.060

LKPR Director/Ruzyne Radar (Archives)
Prague, Czech Republic

Feed Status: UP
Listen in your browser - HTML5 player(in browser, HTML5)
Click here to listen with your own player(launches your MP3 player)

LKPR 181330Z 19006KT 160V230 CAVOK 15/03 Q1025 NOSIG

LKPR Flight Activity (Flightaware)

Listeners: 1 out of 1280 total

Prague Director/Ruzyne Radar: 119.010

LKPR Ground (Archives)
Prague, Czech Republic

Feed Status: UP
Listen in your browser - HTML5 player(in browser, HTML5)
Click here to listen with your own player(launches your MP3 player)

LKPR 181330Z 19006KT 160V230 CAVOK 15/03 Q1025 NOSIG

LKPR Flight Activity (Flightaware)

Listeners: 1 out of 1280 total

Prague/Ruzyne Ground: 121.910

LKPR Tower (Archives)
Prague, Czech Republic

Feed Status: UP
Listen in your browser - HTML5 player(in browser, HTML5)
Click here to listen with your own player(launches your MP3 player)

LKPR 181330Z 19006KT 160V230 CAVOK 15/03 Q1025 NOSIG

LKPR Flight Activity (Flightaware)

Listeners: 5 out of 1280 total

Prague/Ruzyne Tower: 134.560

LKTB Gnd/Twr/Radar (Archives)
Brno, Czech Republic

Feed Status: UP
Listen in your browser - HTML5 player(in browser, HTML5)
Click here to listen with your own player(launches your MP3 player)

LKTB 181330Z 20003KT 170V240 9999 SCT045 14/04 Q1026 NOSIG

LKTB Flight Activity (Flightaware)

Listeners: 1 out of 1280 total

Brno Ground: 125.430
Brno Handling: 131.800
Brno Tower: 119.605
Praha Radar (Approach): 127.350

LMML GndTwr/App/Control (Archives)
Luqa, Malta

Feed Status: UP
Listen in your browser - HTML5 player(in browser, HTML5)
Click here to listen with your own player(launches your MP3 player)

LMML 181345Z AUTO 10005KT 040V170 CAVOK 22/16 Q1021 NOSIG

LMML Flight Activity (Flightaware)

Listeners: 2 out of 1280 total

Emergency/Guard: 121.500
Luqa Ground: 121.600
Luqa Radar: 128.150
Luqa Tower: 135.100
Malta Radar - East (Primary): 122.775
Malta Radar - East (Secondary): 123.625
Malta Radar - UHF: 284.500
Malta Radar - West (Primary): 130.975
Malta Radar - West (Secondary): 127.525

LPCS Tower (Archives)
Cascais, Portugal

Feed Status: UP
Listen in your browser - HTML5 player(in browser, HTML5)
Click here to listen with your own player(launches your MP3 player)

LPCS 181330Z 19005KT 130V250 CAVOK 25/17 Q1020

LPCS Flight Activity (Flightaware)

Listeners: 2 out of 1280 total

Cascais Tower: 120.305

LPMA App/LPPC Center
Madeira, Portugal

Feed Status: DOWN
Offline since: 2021-10-16 11:39:39 UTC

Lisboa Control (Madeira Sector): 132.255
Madeira Approach: 119.605

LPMA Approach (Archives)
Madeira, Portugal

Feed Status: UP
Listen in your browser - HTML5 player(in browser, HTML5)
Click here to listen with your own player(launches your MP3 player)

LPMA 181330Z 22010KT CAVOK 25/19 Q1019

LPMA Flight Activity (Flightaware)

Listeners: 1 out of 1280 total

Madeira Approach: 119.605

LPPR Approach #1 (Archives)
Porto, Portugal

Feed Status: UP
Listen in your browser - HTML5 player(in browser, HTML5)
Click here to listen with your own player(launches your MP3 player)

LPPR 181330Z 21006KT 180V250 9999 FEW008 SCT014 22/18 Q1021

LPPR Flight Activity (Flightaware)

Listeners: 2 out of 1280 total

Porto Approach: 121.105

LPPT Approach (Archives)
Lisbon, Portugal

Feed Status: UP
Listen in your browser - HTML5 player(in browser, HTML5)
Click here to listen with your own player(launches your MP3 player)

LPPT 181330Z VRB03KT CAVOK 25/18 Q1020

LPPT Flight Activity (Flightaware)

Listeners: 4 out of 1280 total

Lisbon Approach: 119.105

LRCL Twr/App #1 (Archives)
Cluj-Napoca, Romania

Feed Status: UP
Listen in your browser - HTML5 player(in browser, HTML5)
Click here to listen with your own player(launches your MP3 player)

LRCL 181330Z 03004KT 360V060 9999 BKN049 12/03 Q1024

LRCL Flight Activity (Flightaware)

Listeners: 0 out of 1280 total

Cluj Approach: 126.425
Cluj Tower: 118.705

LRCL Twr/App/ACC (Archives)
Cluj-Napoca, Romania

Feed Status: UP
Listen in your browser - HTML5 player(in browser, HTML5)
Click here to listen with your own player(launches your MP3 player)

LRCL 181330Z 03004KT 360V060 9999 BKN049 12/03 Q1024

LRCL Flight Activity (Flightaware)

Listeners: 0 out of 1280 total

Cluj Approach: 126.425
Cluj Tower: 118.705
Napoc ACC: 127.075

LROP Ground (Archives)
Bucharest, Romania

Feed Status: UP
Listen in your browser - HTML5 player(in browser, HTML5)
Click here to listen with your own player(launches your MP3 player)

LROP 181330Z 24005KT 9999 OVC026 13/09 Q1023 NOSIG

LROP Flight Activity (Flightaware)

Listeners: 0 out of 1280 total

Bucharest Ground: 121.855

LROP Radar (Archives)
Bucharest, Romania

Feed Status: UP
Listen in your browser - HTML5 player(in browser, HTML5)
Click here to listen with your own player(launches your MP3 player)

LROP 181330Z 24005KT 9999 OVC026 13/09 Q1023 NOSIG

LROP Flight Activity (Flightaware)

Listeners: 0 out of 1280 total

Bucharest Radar (Arges Mid sector): 121.175
Bucharest Radar (Arges Top Sector): 123.265
Bucharest Radar (Lomos Top Sector): 132.865

LROP Tower/Approach (Archives)
Bucharest, Romania

Feed Status: UP
Listen in your browser - HTML5 player(in browser, HTML5)
Click here to listen with your own player(launches your MP3 player)

LROP 181330Z 24005KT 9999 OVC026 13/09 Q1023 NOSIG

LROP Flight Activity (Flightaware)

Listeners: 0 out of 1280 total

Bucharest Approach: 119.415
Bucharest Director: 127.155
Bucharest Tower: 118.805

LROP Twr/App/Radar (Archives)
Bucharest, Romania

Feed Status: UP
Listen in your browser - HTML5 player(in browser, HTML5)
Click here to listen with your own player(launches your MP3 player)

LROP 181330Z 24005KT 9999 OVC026 13/09 Q1023 NOSIG

LROP Flight Activity (Flightaware)

Listeners: 6 out of 1280 total

Bucharest Approach: 119.415
Bucharest Director: 127.155
Bucharest Radar (Arges Mid sector): 121.175
Bucharest Radar (Arges Top Sector): 123.265
Bucharest Radar (Lomos Top Sector): 132.865
Bucharest Tower: 118.805

LRSB Tower/CTAF (Archives)
Sibiu, Romania

Feed Status: UP
Listen in your browser - HTML5 player(in browser, HTML5)
Click here to listen with your own player(launches your MP3 player)

LRSB 181330Z 01002KT 280V040 9999 BKN044 13/05 Q1023 NOSIG

LRSB Flight Activity (Flightaware)

Listeners: 0 out of 1280 total

Sibiu Tower: 121.305

LRTR Tower (Archives)
Timisoara, Romania

Feed Status: UP
Listen in your browser - HTML5 player(in browser, HTML5)
Click here to listen with your own player(launches your MP3 player)

LRTR 181330Z 01005KT 320V060 CAVOK 15/04 Q1024

LRTR Flight Activity (Flightaware)

Listeners: 0 out of 1280 total

ARAD Approach: 127.250
Timisoara Tower: 120.100

LSGS Gnd/Twr/App (Archives)
Sion, Switzerland

Feed Status: UP
Listen in your browser - HTML5 player(in browser, HTML5)
Click here to listen with your own player(launches your MP3 player)

LSGS 181350Z 25005KT 210V280 CAVOK 18/01 Q1023

LSGS Flight Activity (Flightaware)

Listeners: 1 out of 1280 total

Alpine Jet Service Handling: 131.675
Sion Airport Handling: 131.475
Sion Approach (IFR ARR MIL OFF): 126.825
Sion Ground: 121.700
Sion Tower: 118.275

LSMD Tower (Archives)
Dubendorf, Switzerland

Feed Status: UP
Listen in your browser - HTML5 player(in browser, HTML5)
Click here to listen with your own player(launches your MP3 player)

LSZH 181350Z VRB02KT CAVOK 15/09 Q1024 NOSIG

LSZH Flight Activity (Flightaware)

Listeners: 0 out of 1280 total

Dubendorf Tower: 118.975

LSPM AFIS (Archives)
Ambri, Switzerland

Feed Status: UP
Listen in your browser - HTML5 player(in browser, HTML5)
Click here to listen with your own player(launches your MP3 player)

LSPM Flight Activity (Flightaware)

Listeners: 0 out of 1280 total

Ambri AFIS: 118.525

LSZA Tower (Archives)
Agno, Switzerland

Feed Status: UP
Listen in your browser - HTML5 player(in browser, HTML5)
Click here to listen with your own player(launches your MP3 player)

LSZA 181350Z 19006KT CAVOK 19/10 Q1023 NOSIG

LSZA Flight Activity (Flightaware)

Listeners: 0 out of 1280 total

Lugano Tower: 120.250

LSZB App/Dep (Archives)
Bern, Switzerland

Feed Status: UP
Listen in your browser - HTML5 player(in browser, HTML5)
Click here to listen with your own player(launches your MP3 player)

LSZB 181350Z 25004KT CAVOK 18/06 Q1023 NOSIG

LSZB Flight Activity (Flightaware)

Listeners: 0 out of 1280 total

Bern Arrival/Departure: 127.325

LSZB ATIS (Archives)
Bern, Switzerland

Feed Status: UP
Listen in your browser - HTML5 player(in browser, HTML5)
Click here to listen with your own player(launches your MP3 player)

LSZB 181350Z 25004KT CAVOK 18/06 Q1023 NOSIG

LSZB Flight Activity (Flightaware)

Listeners: 0 out of 1280 total

Bern ATIS: 125.125

LSZB Clearance Delivery (Archives)
Bern, Switzerland

Feed Status: UP
Listen in your browser - HTML5 player(in browser, HTML5)
Click here to listen with your own player(launches your MP3 player)

LSZB 181350Z 25004KT CAVOK 18/06 Q1023 NOSIG

LSZB Flight Activity (Flightaware)

Listeners: 0 out of 1280 total

Bern Clearance Delivery: 121.905

LSZB Del/Twr/App/Dep (Archives)
Bern, Switzerland

Feed Status: UP
Listen in your browser - HTML5 player(in browser, HTML5)
Click here to listen with your own player(launches your MP3 player)

LSZB 181350Z 25004KT CAVOK 18/06 Q1023 NOSIG

LSZB Flight Activity (Flightaware)

Listeners: 2 out of 1280 total

Bern Arrival/Departure: 127.325
Bern Clearance Delivery: 121.905
Bern Tower: 121.025

LSZB Tower (Archives)
Bern, Switzerland

Feed Status: UP
Listen in your browser - HTML5 player(in browser, HTML5)
Click here to listen with your own player(launches your MP3 player)

LSZB 181350Z 25004KT CAVOK 18/06 Q1023 NOSIG

LSZB Flight Activity (Flightaware)

Listeners: 1 out of 1280 total

Bern Tower: 121.025

LSZB Twr/App/Dep (Archives)
Bern, Switzerland

Feed Status: UP
Listen in your browser - HTML5 player(in browser, HTML5)
Click here to listen with your own player(launches your MP3 player)

LSZB 181350Z 25004KT CAVOK 18/06 Q1023 NOSIG

LSZB Flight Activity (Flightaware)

Listeners: 0 out of 1280 total

Bern Arrival/Departure: 127.325
Bern Tower: 121.025

LSZG Tower (Archives)
Grenchen, Switzerland

Feed Status: UP
Listen in your browser - HTML5 player(in browser, HTML5)
Click here to listen with your own player(launches your MP3 player)

LSZG 181350Z VRB01KT CAVOK 17/07 Q1024 NOSIG

LSZG Flight Activity (Flightaware)

Listeners: 0 out of 1280 total

Grenchen Tower: 120.100

LSZH Approach (East) (Archives)
Zurich, Switzerland

Feed Status: UP
Listen in your browser - HTML5 player(in browser, HTML5)
Click here to listen with your own player(launches your MP3 player)

LSZH 181350Z VRB02KT CAVOK 15/09 Q1024 NOSIG

LSZH Flight Activity (Flightaware)

Listeners: 2 out of 1280 total

Zurich Approach (East): 135.225

LSZH Apron (South) (Archives)
Zurich, Switzerland

Feed Status: UP
Listen in your browser - HTML5 player(in browser, HTML5)
Click here to listen with your own player(launches your MP3 player)

LSZH 181350Z VRB02KT CAVOK 15/09 Q1024 NOSIG

LSZH Flight Activity (Flightaware)

Listeners: 2 out of 1280 total

Zurich Apron (South): 121.755

LSZH Apron (West) (Archives)
Zurich, Switzerland

Feed Status: UP
Listen in your browser - HTML5 player(in browser, HTML5)
Click here to listen with your own player(launches your MP3 player)

LSZH 181350Z VRB02KT CAVOK 15/09 Q1024 NOSIG

LSZH Flight Activity (Flightaware)

Listeners: 2 out of 1280 total

Zurich Apron (West): 121.855

LSZH Clearance Delivery (Archives)
Zurich, Switzerland

Feed Status: UP
Listen in your browser - HTML5 player(in browser, HTML5)
Click here to listen with your own player(launches your MP3 player)

LSZH 181350Z VRB02KT CAVOK 15/09 Q1024 NOSIG

LSZH Flight Activity (Flightaware)

Listeners: 1 out of 1280 total

Zurich Clearance Delivery: 121.925

LSZH Ground (Archives)
Zurich, Switzerland

Feed Status: UP
Listen in your browser - HTML5 player(in browser, HTML5)
Click here to listen with your own player(launches your MP3 player)

LSZH 181350Z VRB02KT CAVOK 15/09 Q1024 NOSIG

LSZH Flight Activity (Flightaware)

Listeners: 0 out of 1280 total

Zurich Ground: 121.905

LSZH Radar 132.815 (Archives)
Zurich, Switzerland

Feed Status: UP
Listen in your browser - HTML5 player(in browser, HTML5)
Click here to listen with your own player(launches your MP3 player)

LSZH 181350Z VRB02KT CAVOK 15/09 Q1024 NOSIG

LSZH Flight Activity (Flightaware)

Listeners: 1 out of 1280 total

Zurich Radar: 132.815

LSZH Radar 133.050 (Archives)
Zurich, Switzerland

Feed Status: UP
Listen in your browser - HTML5 player(in browser, HTML5)
Click here to listen with your own player(launches your MP3 player)

LSZH 181350Z VRB02KT CAVOK 15/09 Q1024 NOSIG

LSZH Flight Activity (Flightaware)

Listeners: 0 out of 1280 total

Zurich Radar: 133.050

LSZH Radar 133.405 (Archives)
Zurich, Switzerland

Feed Status: UP
Listen in your browser - HTML5 player(in browser, HTML5)
Click here to listen with your own player(launches your MP3 player)

LSZH 181350Z VRB02KT CAVOK 15/09 Q1024 NOSIG

LSZH Flight Activity (Flightaware)

Listeners: 0 out of 1280 total

Zurich Radar: 133.405

LSZH Radar 133.690 (Archives)
Zurich, Switzerland

Feed Status: UP
Listen in your browser - HTML5 player(in browser, HTML5)
Click here to listen with your own player(launches your MP3 player)

LSZH 181350Z VRB02KT CAVOK 15/09 Q1024 NOSIG

LSZH Flight Activity (Flightaware)

Listeners: 0 out of 1280 total

Zurich Radar: 133.690

LSZH Radar 133.905 (Archives)
Zurich, Switzerland

Feed Status: UP
Listen in your browser - HTML5 player(in browser, HTML5)
Click here to listen with your own player(launches your MP3 player)

LSZH 181350Z VRB02KT CAVOK 15/09 Q1024 NOSIG

LSZH Flight Activity (Flightaware)

Listeners: 1 out of 1280 total

Zurich Radar (Below FL240 East): 133.905

LSZH Radar 134.605 (Archives)
Zurich, Switzerland

Feed Status: UP
Listen in your browser - HTML5 player(in browser, HTML5)
Click here to listen with your own player(launches your MP3 player)

LSZH 181350Z VRB02KT CAVOK 15/09 Q1024 NOSIG

LSZH Flight Activity (Flightaware)

Listeners: 0 out of 1280 total

Zurich Radar (FL330-350): 134.605

LSZH Radar 135.680 (Archives)
Zurich, Switzerland

Feed Status: UP
Listen in your browser - HTML5 player(in browser, HTML5)
Click here to listen with your own player(launches your MP3 player)

LSZH 181350Z VRB02KT CAVOK 15/09 Q1024 NOSIG

LSZH Flight Activity (Flightaware)

Listeners: 0 out of 1280 total


LSZH Radar 136.155 (Archives)
Zurich, Switzerland

Feed Status: UP
Listen in your browser - HTML5 player(in browser, HTML5)
Click here to listen with your own player(launches your MP3 player)

LSZH 181350Z VRB02KT CAVOK 15/09 Q1024 NOSIG

LSZH Flight Activity (Flightaware)

Listeners: 0 out of 1280 total

Zurich Radar (Below FL240 North): 136.155

LSZH Tower (Archives)
Zurich, Switzerland

Feed Status: UP
Listen in your browser - HTML5 player(in browser, HTML5)
Click here to listen with your own player(launches your MP3 player)

LSZH 181350Z VRB02KT CAVOK 15/09 Q1024 NOSIG

LSZH Flight Activity (Flightaware)

Listeners: 10 out of 1280 total

Zurich Tower: 118.100

LSZH Tower (14/32) (Archives)
Zurich, Switzerland

Feed Status: UP
Listen in your browser - HTML5 player(in browser, HTML5)
Click here to listen with your own player(launches your MP3 player)

LSZH 181350Z VRB02KT CAVOK 15/09 Q1024 NOSIG

LSZH Flight Activity (Flightaware)

Listeners: 1 out of 1280 total

Zurich Tower (Rwy 14 App/32 Takeoff): 120.225

LSZH Twr/Gnd (backup) (Archives)
Zurich, Switzerland

Feed Status: UP
Listen in your browser - HTML5 player(in browser, HTML5)
Click here to listen with your own player(launches your MP3 player)

LSZH 181350Z VRB02KT CAVOK 15/09 Q1024 NOSIG

LSZH Flight Activity (Flightaware)

Listeners: 0 out of 1280 total

Zurich Twr/Gnd (backup): 119.700

LSZL Tower (Archives)
Locarno, Switzerland

Feed Status: UP
Listen in your browser - HTML5 player(in browser, HTML5)
Click here to listen with your own player(launches your MP3 player)

LSZL 181350Z 26005KT 230V290 CAVOK 17/09 Q1023 RMK BLU

LSZL Flight Activity (Flightaware)

Listeners: 0 out of 1280 total


LSZN CTAF (Archives)
Zurich, Switzerland

Feed Status: UP
Listen in your browser - HTML5 player(in browser, HTML5)
Click here to listen with your own player(launches your MP3 player)

LSZN Flight Activity (Flightaware)

Listeners: 1 out of 1280 total

Hausen am Albis CTAF: 130.755

LSZR Tower (Archives)
Altenrhein, Switzerland

Feed Status: UP
Listen in your browser - HTML5 player(in browser, HTML5)
Click here to listen with your own player(launches your MP3 player)

LSZR 181350Z VRB02KT CAVOK 12/09 Q1025 NOSIG RMK L

LSZR Flight Activity (Flightaware)

Listeners: 0 out of 1280 total

Altenrhein Tower: 135.425

LSZW CTAF
Thun, Switzerland

Feed Status: DOWN
Offline since: 2021-10-18 13:00:39 UTC

Thun CTAF/Info: 123.250

LTBA Gnd/Twr/App (Archives)
Istanbul, Turkey

Feed Status: UP
Listen in your browser - HTML5 player(in browser, HTML5)
Click here to listen with your own player(launches your MP3 player)

LTBA 181350Z 03012KT 9999 SCT022 BKN070 16/11 Q1022 NOSIG RMK RWY23 03014KT

LTBA Flight Activity (Flightaware)

Listeners: 2 out of 1280 total

Istanbul Approach: 126.425
Istanbul Approach: 133.075
Istanbul Tower: 118.100
Istanbul Tower: 118.375

LTFJ Del/Gnd/Twr (Archives)
Istanbul, Turkey

Feed Status: UP
Listen in your browser - HTML5 player(in browser, HTML5)
Click here to listen with your own player(launches your MP3 player)

LTFJ 181350Z 03014KT 9999 SCT011 BKN030 16/12 Q1022 NOSIG RMK RWY24 03012KT

LTFJ Flight Activity (Flightaware)

Listeners: 3 out of 1280 total

Pegasus Dispatch: 131.750

LTFM App/Dep
Istanbul, Turkey

Feed Status: DOWN
Offline since: 2021-09-23 09:34:06 UTC

LTFM 181350Z 04012KT 9999 SCT022 BKN080 15/10 Q1023 NOSIG RMK RWY17L 04009KT RWY34L 03010KT RWY16R 04010KT RWY36 04011KT RWY18 04009KT

Yesilkoy Approach: 130.300
Yesilkoy Approach: 118.950
Yesilkoy Radar: 132.475
Yesilkoy Radar: 132.050
Yesilkoy Radar: 131.125
Yesilkoy Radar: 132.325

LTFM Gnd/Twr
Istanbul, Turkey

Feed Status: DOWN
Offline since: 2021-09-23 09:34:06 UTC

LTFM 181350Z 04012KT 9999 SCT022 BKN080 15/10 Q1023 NOSIG RMK RWY17L 04009KT RWY34L 03010KT RWY16R 04010KT RWY36 04011KT RWY18 04009KT

Istanbul Ground : 122.600
Istanbul Ground: 124.425
Istanbul Tower: 118.075
Istanbul Tower: 122.700
Istanbul Tower: 127.500

LUKK ACC #1 (Archives)
Chisinau, Moldova

Feed Status: UP
Listen in your browser - HTML5 player(in browser, HTML5)
Click here to listen with your own player(launches your MP3 player)

LUKK 181400Z 35005KT CAVOK 13/03 Q1022 R26/CLRD// NOSIG

LUKK Flight Activity (Flightaware)

Listeners: 0 out of 1280 total

Chisinau ACC: 130.975

LUKK ACC #2 (Archives)
Chisinau, Moldova

Feed Status: UP
Listen in your browser - HTML5 player(in browser, HTML5)
Click here to listen with your own player(launches your MP3 player)

LUKK 181400Z 35005KT CAVOK 13/03 Q1022 R26/CLRD// NOSIG

LUKK Flight Activity (Flightaware)

Listeners: 0 out of 1280 total

Chisinau ACC: 128.975

LUKK Air to Air (Archives)
Chisinau, Moldova

Feed Status: UP
Listen in your browser - HTML5 player(in browser, HTML5)
Click here to listen with your own player(launches your MP3 player)

LUKK 181400Z 35005KT CAVOK 13/03 Q1022 R26/CLRD// NOSIG

LUKK Flight Activity (Flightaware)

Listeners: 0 out of 1280 total

Chisinau Air to Air: 123.450

LUKK Alternate (Archives)
Chisinau, Moldova

Feed Status: UP
Listen in your browser - HTML5 player(in browser, HTML5)
Click here to listen with your own player(launches your MP3 player)

LUKK 181400Z 35005KT CAVOK 13/03 Q1022 R26/CLRD// NOSIG

LUKK Flight Activity (Flightaware)

Listeners: 0 out of 1280 total

Chisinau Alternate: 129.725

LUKK Approach #1 (Archives)
Chisinau, Moldova

Feed Status: UP
Listen in your browser - HTML5 player(in browser, HTML5)
Click here to listen with your own player(launches your MP3 player)

LUKK 181400Z 35005KT CAVOK 13/03 Q1022 R26/CLRD// NOSIG

LUKK Flight Activity (Flightaware)

Listeners: 0 out of 1280 total

Chisinau Approach: 133.300

LUKK Approach #2 (Archives)
Chisinau, Moldova

Feed Status: UP
Listen in your browser - HTML5 player(in browser, HTML5)
Click here to listen with your own player(launches your MP3 player)

LUKK 181400Z 35005KT CAVOK 13/03 Q1022 R26/CLRD// NOSIG

LUKK Flight Activity (Flightaware)

Listeners: 0 out of 1280 total

Chisinau Approach: 133.300

LUKK Emergency/Guard (Archives)
Chisinau, Moldova

Feed Status: UP
Listen in your browser - HTML5 player(in browser, HTML5)
Click here to listen with your own player(launches your MP3 player)

LUKK 181400Z 35005KT CAVOK 13/03 Q1022 R26/CLRD// NOSIG

LUKK Flight Activity (Flightaware)

Listeners: 0 out of 1280 total

Emergency/Guard: 121.500

LUKK Ground #2 (Archives)
Chisinau, Moldova

Feed Status: UP
Listen in your browser - HTML5 player(in browser, HTML5)
Click here to listen with your own player(launches your MP3 player)

LUKK 181400Z 35005KT CAVOK 13/03 Q1022 R26/CLRD// NOSIG

LUKK Flight Activity (Flightaware)

Listeners: 0 out of 1280 total

Chisinau Ground: 121.800

LUKK Handling (Archives)
Chisinau, Moldova

Feed Status: UP
Listen in your browser - HTML5 player(in browser, HTML5)
Click here to listen with your own player(launches your MP3 player)

LUKK 181400Z 35005KT CAVOK 13/03 Q1022 R26/CLRD// NOSIG

LUKK Flight Activity (Flightaware)

Listeners: 0 out of 1280 total

Chisinau Handling: 131.700

LUKK Tower #2 (Archives)
Chisinau, Moldova

Feed Status: UP
Listen in your browser - HTML5 player(in browser, HTML5)
Click here to listen with your own player(launches your MP3 player)

LUKK 181400Z 35005KT CAVOK 13/03 Q1022 R26/CLRD// NOSIG

LUKK Flight Activity (Flightaware)

Listeners: 0 out of 1280 total

Chisinau Tower: 118.100

LWSK ACC (Lower) (Archives)
Petrovec, North Macedonia, Republic of

Feed Status: UP
Listen in your browser - HTML5 player(in browser, HTML5)
Click here to listen with your own player(launches your MP3 player)

LWSK 181400Z 34004KT 310V050 9999 FEW040 20/09 Q1022 NOSIG

LWSK Flight Activity (Flightaware)

Listeners: 0 out of 1280 total

Skopje Control (Lower): 119.375

LWSK ACC (Upper) (Archives)
Petrovec, North Macedonia, Republic of

Feed Status: UP
Listen in your browser - HTML5 player(in browser, HTML5)
Click here to listen with your own player(launches your MP3 player)

LWSK 181400Z 34004KT 310V050 9999 FEW040 20/09 Q1022 NOSIG

LWSK Flight Activity (Flightaware)

Listeners: 0 out of 1280 total

Skopje Control (Upper): 120.015

LWSK Approach (Archives)
Petrovec, North Macedonia, Republic of

Feed Status: UP
Listen in your browser - HTML5 player(in browser, HTML5)
Click here to listen with your own player(launches your MP3 player)

LWSK 181400Z 34004KT 310V050 9999 FEW040 20/09 Q1022 NOSIG

LWSK Flight Activity (Flightaware)

Listeners: 0 out of 1280 total

Skopje Approach/Departure: 120.300

LWSK ATIS (Archives)
Petrovec, North Macedonia, Republic of

Feed Status: UP
Listen in your browser - HTML5 player(in browser, HTML5)
Click here to listen with your own player(launches your MP3 player)

LWSK 181400Z 34004KT 310V050 9999 FEW040 20/09 Q1022 NOSIG

LWSK Flight Activity (Flightaware)

Listeners: 0 out of 1280 total

Skopje ATIS: 130.125

LWSK Tower (Archives)
Petrovec, North Macedonia, Republic of

Feed Status: UP
Listen in your browser - HTML5 player(in browser, HTML5)
Click here to listen with your own player(launches your MP3 player)

LWSK 181400Z 34004KT 310V050 9999 FEW040 20/09 Q1022 NOSIG

LWSK Flight Activity (Flightaware)

Listeners: 0 out of 1280 total

Skopje Tower: 118.500

LYNI Twr/App (Archives)
Nis, Serbia

Feed Status: UP
Listen in your browser - HTML5 player(in browser, HTML5)
Click here to listen with your own player(launches your MP3 player)

LYNI 181330Z 32009KT 9999 FEW037 SCT050 16/06 Q1024 NOSIG

LYNI Flight Activity (Flightaware)

Listeners: 0 out of 1280 total

Nis Approach: 119.525
Nis Approach/Tower (Alternate): 136.075
Nis Tower: 118.950

LZIB Gnd/Twr/App
Bratislava, Slovakia

Feed Status: DOWN
Offline since: 2021-10-10 09:51:22 UTC

LZIB 181400Z 33005KT 300V020 CAVOK 14/05 Q1026 NOSIG

BTS Handling: 131.850
Stefanik Ground: 120.900
Stefanik Ground: 121.700
Stefanik Radar: 134.925
Stefanik Tower: 118.300

LZKZ Gnd/Twr/App (Archives)
Kosice, Slovakia

Feed Status: UP
Listen in your browser - HTML5 player(in browser, HTML5)
Click here to listen with your own player(launches your MP3 player)

LZKZ 181400Z VRB01KT 9999 BKN043 13/03 Q1024 NOSIG

LZKZ Flight Activity (Flightaware)

Listeners: 0 out of 1280 total

Kosice Approach: 129.350
Kosice Approach (backup): 119.850
Kosice Ground: 121.700
Kosice Handling: 131.850
Kosice Tower: 120.400

LZNI CTAF (Archives)
Nitra, Slovakia

Feed Status: UP
Listen in your browser - HTML5 player(in browser, HTML5)
Click here to listen with your own player(launches your MP3 player)

LZNI Flight Activity (Flightaware)

Listeners: 0 out of 1280 total

Nitra Traffic Radio: 123.405

LZPE CTAF/UNICOM (Archives)
Prievidza, Slovakia

Feed Status: UP
Listen in your browser - HTML5 player(in browser, HTML5)
Click here to listen with your own player(launches your MP3 player)

LZPE Flight Activity (Flightaware)

Listeners: 0 out of 1280 total

Prievidza CTAF/UNICOM: 123.055

LZPP Ground/Tower (Archives)
Piestany, Slovakia

Feed Status: UP
Listen in your browser - HTML5 player(in browser, HTML5)
Click here to listen with your own player(launches your MP3 player)

LZPP 181330Z 36008KT 9999 BKN040 13/06 Q1026

LZPP Flight Activity (Flightaware)

Listeners: 0 out of 1280 total

Piestany Ground: 121.700
Piestany Tower: 118.575

LZPT CTAF (Archives)
Partizanske, Slovakia

Feed Status: UP
Listen in your browser - HTML5 player(in browser, HTML5)
Click here to listen with your own player(launches your MP3 player)

LZPT Flight Activity (Flightaware)

Listeners: 0 out of 1280 total

Male Bielice CTAF: 123.500

UIAA Twr/App/Center
Chita, Russia

Feed Status: DOWN
Offline since: 2021-09-18 08:27:39 UTC

Center: 135.600
Chita Approach: 122.000
Chita Tower: 118.200

URKK Gnd/Twr/App
Krasnodar, Russia

Feed Status: DOWN
Offline since: 2021-07-10 08:55:40 UTC

URKK 181330Z 30004MPS 9000 NSC 19/08 Q1016 R23L/CLRD70 NOSIG RMK QFE759

Krasnodar Approach: 129.600
Krasnodar Ground: 119.000
Krasnodar Radar: 121.300
Krasnodar Tower: 118.200

URMT Twr/App/Control (Archives)
Stavropol, Russia

Feed Status: UP
Listen in your browser - HTML5 player(in browser, HTML5)
Click here to listen with your own player(launches your MP3 player)

URMT 181330Z 32005MPS CAVOK 15/05 Q1015 R25/010070 NOSIG RMK QFE723

URMT Flight Activity (Flightaware)

Listeners: 0 out of 1280 total

Stavropol Approach: 120.300
Stavropol Control: 118.250
Stavropol Tower: 120.900

URSS Gnd/Twr/App (Archives)
Sochi, Russia

Feed Status: UP
Listen in your browser - HTML5 player(in browser, HTML5)
Click here to listen with your own player(launches your MP3 player)

URSS 181330Z 03003MPS 9999 SCT028CB OVC100 17/13 Q1016 R02/290060 R06/250060 NOSIG RMK R06/07001MPS MT OBSC QFE761

URSS Flight Activity (Flightaware)

Listeners: 1 out of 1280 total

Sochi Approach: 118.300
Sochi Approach: 119.700
Sochi District (Small Aircraft): 118.500
Sochi Start: 121.200
Sochi Taxi: 119.000
Sochi Tower: 124.600

USDD Gnd/Twr/App/Control (Archives)
Salekhard, Russia

Feed Status: UP
Listen in your browser - HTML5 player(in browser, HTML5)
Click here to listen with your own player(launches your MP3 player)


USDD Flight Activity (Flightaware)

Listeners: 0 out of 1280 total

Salekhard Control: 132.300
Salekhard Ground: 118.800
Salekhard Info: 125.200
Salekhard Krug: 120.800
Salekhard Tower: 118.600
Salekhard Transit: 131.700

UUEE Twr/App/Radar (Archives)
Moscow, Russia

Feed Status: UP
Listen in your browser - HTML5 player(in browser, HTML5)
Click here to listen with your own player(launches your MP3 player)

UUEE 181330Z 26008MPS 220V320 9999 -SHRA BKN017CB 06/01 Q1008 RESHRA R24L/CLRD62 R24C/CLRD62 R24R/290051 NOSIG

UUEE Flight Activity (Flightaware)

Listeners: 4 out of 1280 total

Sheremetyevo Radar: 118.100
Sheremetyevo Radar/Departure: 126.600
Sheremetyevo Tower: 131.500
Sheremetyevo Tower (Rwy 24R/06L): 118.700